[[{"header":{"parameterUnit":"m.s-1","parameterCategory":1,"la1":30.6,"la2":29.2853,"lo1":-89.7004,"lo2":-87.6739,"dx":0.0162,"dy":0.0183,"nx":112,"ny":82,"refTime":"2023-01-01T06:00:00:Z","depth":0,"parameterNumber":2,"parameterNumberName":"U-component_of_WINDS"},"data":[0.0,0.0,0.0,0.0,0.0,0.0,0.0,0.0,0.0,0.0,0.0,0.0,0.0,0.0,0.0,0.0,0.0,0.0,0.0,0.0,0.0,0.0,0.0,0.0,0.0,0.0,0.0,0.0,0.0,0.0,0.0,0.0,0.0,0.0,0.0,0.0,0.0,0.0,0.0,0.0,0.0,0.0,0.0,0.0,0.0,0.0,0.0,0.0,0.0,0.0,0.0,0.0,0.0,0.0,0.0,0.0,0.0,0.0,0.0,0.0,0.0,0.0,0.0,0.0,0.0,0.0,0.0,0.0,0.0,0.0,0.0,0.0,0.0,0.0,0.0,0.0,0.0,0.0,0.0,0.0,0.0,0.0,0.0,0.0,0.0,0.0,0.0,0.0,0.0,0.0,4.597,4.7509,5.0471,5.2164,5.1741,5.1087,4.8856,4.4586,0.0,0.0,0.0,0.0,0.0,0.0,0.0,0.0,0.0,0.0,0.0,0.0,0.0,0.0,0.0,0.0,0.0,0.0,0.0,0.0,0.0,0.0,0.0,0.0,0.0,0.0,0.0,0.0,0.0,0.0,0.0,0.0,0.0,0.0,0.0,0.0,0.0,0.0,0.0,0.0,0.0,0.0,0.0,0.0,0.0,0.0,0.0,0.0,0.0,0.0,0.0,0.0,0.0,0.0,0.0,0.0,0.0,0.0,0.0,0.0,0.0,0.0,0.0,0.0,0.0,0.0,0.0,0.0,0.0,0.0,0.0,0.0,0.0,0.0,0.0,0.0,0.0,0.0,0.0,0.0,0.0,0.0,0.0,0.0,0.0,0.0,0.0,0.0,0.0,0.0,0.0,0.0,0.0,0.0,0.0,0.0,0.0,0.0,0.0,0.0,0.0,0.0,0.0,0.0,4.6201,5.0664,5.2933,5.3241,5.1048,5.0779,4.8856,4.4586,0.0,0.0,0.0,0.0,0.0,0.0,0.0,0.0,0.0,0.0,0.0,0.0,0.0,0.0,0.0,0.0,0.0,0.0,0.0,0.0,0.0,0.0,0.0,0.0,0.0,0.0,0.0,0.0,0.0,0.0,0.0,0.0,0.0,0.0,0.0,0.0,0.0,0.0,0.0,0.0,0.0,0.0,0.0,0.0,0.0,0.0,0.0,0.0,0.0,0.0,0.0,0.0,0.0,0.0,0.0,0.0,0.0,0.0,0.0,0.0,0.0,0.0,0.0,0.0,0.0,0.0,0.0,0.0,0.0,0.0,0.0,0.0,0.0,0.0,0.0,0.0,0.0,0.0,0.0,0.0,0.0,0.0,0.0,0.0,0.0,0.0,0.0,0.0,0.0,0.0,0.0,0.0,0.0,0.0,0.0,0.0,0.0,0.0,0.0,0.0,0.0,0.0,0.0,4.7509,5.0202,5.301,5.4395,5.4511,5.2895,5.2318,5.024,4.597,4.4085,0.0,0.0,0.0,0.0,0.0,0.0,0.0,0.0,0.0,0.0,0.0,0.0,0.0,0.0,0.0,0.0,0.0,0.0,0.0,0.0,0.0,0.0,0.0,0.0,0.0,0.0,0.0,0.0,0.0,0.0,0.0,0.0,0.0,0.0,0.0,0.0,0.0,0.0,0.0,0.0,0.0,0.0,0.0,0.0,0.0,0.0,0.0,0.0,0.0,0.0,0.0,0.0,0.0,0.0,0.0,0.0,0.0,0.0,0.0,0.0,0.0,0.0,0.0,0.0,0.0,0.0,0.0,0.0,0.0,0.0,0.0,0.0,0.0,0.0,0.0,0.0,0.0,0.0,0.0,0.0,0.0,0.0,0.0,0.0,0.0,0.0,0.0,0.0,0.0,0.0,0.0,0.0,0.0,0.0,0.0,0.0,0.0,0.0,0.0,0.0,0.0,0.0,5.1356,5.4203,5.4472,5.5588,5.5818,5.4587,5.3703,5.1395,4.7163,4.5086,0.0,0.0,0.0,0.0,0.0,0.0,0.0,0.0,0.0,0.0,0.0,0.0,0.0,0.0,0.0,0.0,0.0,0.0,0.0,0.0,0.0,0.0,0.0,0.0,0.0,0.0,0.0,0.0,0.0,0.0,0.0,0.0,0.0,0.0,0.0,0.0,0.0,0.0,0.0,0.0,0.0,0.0,0.0,0.0,0.0,0.0,0.0,0.0,0.0,0.0,0.0,0.0,0.0,0.0,0.0,0.0,0.0,0.0,0.0,0.0,0.0,0.0,0.0,0.0,0.0,0.0,0.0,0.0,0.0,0.0,0.0,0.0,0.0,0.0,0.0,0.0,0.0,0.0,0.0,0.0,0.0,0.0,0.0,0.0,0.0,0.0,0.0,0.0,0.0,0.0,0.0,0.0,0.0,0.0,0.0,0.0,0.0,0.0,0.0,0.0,0.0,0.0,5.2202,5.6165,5.4664,5.6665,5.7126,5.4703,5.3703,5.1395,4.7163,4.4547,0.0,0.0,0.0,0.0,0.0,0.0,0.0,0.0,0.0,0.0,0.0,0.0,0.0,0.0,0.0,0.0,0.0,0.0,0.0,0.0,0.0,0.0,0.0,0.0,0.0,0.0,0.0,0.0,0.0,0.0,0.0,0.0,0.0,0.0,0.0,0.0,0.0,0.0,0.0,0.0,0.0,0.0,0.0,0.0,0.0,0.0,0.0,0.0,0.0,0.0,0.0,0.0,0.0,0.0,0.0,0.0,0.0,0.0,0.0,0.0,0.0,0.0,0.0,0.0,0.0,0.0,0.0,0.0,0.0,0.0,0.0,0.0,0.0,0.0,0.0,0.0,0.0,0.0,0.0,0.0,0.0,0.0,0.0,0.0,0.0,0.0,0.0,0.0,0.0,0.0,0.0,0.0,0.0,0.0,0.0,0.0,0.0,0.0,0.0,0.0,0.0,0.0,5.2933,5.6549,5.5357,5.7088,5.7703,5.6203,5.478,5.2856,5.0202,0.0,0.0,0.0,0.0,0.0,0.0,0.0,0.0,0.0,0.0,0.0,0.0,0.0,0.0,0.0,0.0,0.0,0.0,0.0,0.0,0.0,0.0,0.0,0.0,0.0,0.0,0.0,0.0,0.0,0.0,0.0,0.0,0.0,0.0,0.0,0.0,0.0,0.0,0.0,0.0,0.0,0.0,0.0,0.0,0.0,0.0,0.0,0.0,0.0,0.0,0.0,0.0,0.0,0.0,0.0,0.0,0.0,0.0,0.0,0.0,0.0,0.0,0.0,0.0,0.0,0.0,0.0,0.0,0.0,0.0,0.0,0.0,0.0,0.0,0.0,0.0,0.0,0.0,0.0,0.0,0.0,0.0,0.0,0.0,0.0,0.0,0.0,0.0,0.0,0.0,0.0,0.0,0.0,0.0,0.0,0.0,0.0,0.0,0.0,0.0,0.0,0.0,4.8394,5.3741,5.7203,5.6588,5.7588,5.805,5.7473,5.5626,5.378,5.201,0.0,0.0,0.0,0.0,0.0,0.0,0.0,0.0,0.0,0.0,0.0,0.0,0.0,0.0,0.0,0.0,0.0,0.0,0.0,0.0,0.0,0.0,0.0,0.0,0.0,0.0,0.0,0.0,0.0,0.0,0.0,0.0,0.0,0.0,0.0,0.0,0.0,0.0,0.0,0.0,0.0,0.0,0.0,0.0,0.0,0.0,0.0,0.0,0.0,0.0,0.0,0.0,0.0,0.0,0.0,0.0,0.0,0.0,0.0,0.0,0.0,0.0,0.0,0.0,0.0,0.0,0.0,0.0,0.0,0.0,0.0,0.0,0.0,0.0,0.0,0.0,0.0,0.0,0.0,0.0,0.0,0.0,0.0,0.0,0.0,0.0,0.0,0.0,0.0,0.0,0.0,0.0,0.0,0.0,0.0,0.0,0.0,0.0,0.0,0.0,0.0,0.0,4.9317,5.4626,5.8319,5.8319,5.8319,5.8319,5.8319,5.6011,5.3818,0.0,0.0,0.0,0.0,0.0,0.0,0.0,0.0,0.0,0.0,0.0,0.0,0.0,0.0,0.0,0.0,0.0,0.0,0.0,0.0,0.0,0.0,0.0,0.0,0.0,0.0,0.0,0.0,0.0,0.0,0.0,0.0,0.0,0.0,0.0,0.0,0.0,0.0,0.0,0.0,0.0,0.0,0.0,0.0,0.0,0.0,0.0,0.0,0.0,0.0,0.0,0.0,0.0,0.0,0.0,0.0,0.0,0.0,0.0,0.0,0.0,0.0,0.0,0.0,0.0,0.0,0.0,0.0,0.0,0.0,0.0,0.0,0.0,0.0,0.0,0.0,0.0,0.0,0.0,0.0,0.0,0.0,0.0,0.0,0.0,0.0,0.0,0.0,0.0,0.0,0.0,0.0,0.0,0.0,0.0,0.0,0.0,0.0,0.0,0.0,0.0,0.0,0.0,5.0971,5.5857,5.9165,5.9165,5.9704,6.005,6.005,5.8819,5.755,5.6472,0.0,0.0,0.0,0.0,0.0,0.0,0.0,0.0,0.0,0.0,0.0,0.0,0.0,0.0,0.0,0.0,0.0,0.0,0.0,0.0,0.0,0.0,0.0,0.0,0.0,0.0,0.0,0.0,0.0,0.0,0.0,0.0,0.0,0.0,0.0,0.0,0.0,0.0,0.0,0.0,0.0,0.0,0.0,0.0,0.0,0.0,0.0,0.0,0.0,0.0,0.0,0.0,0.0,0.0,0.0,0.0,0.0,0.0,0.0,0.0,0.0,0.0,0.0,0.0,0.0,0.0,0.0,0.0,0.0,0.0,0.0,0.0,0.0,0.0,0.0,0.0,0.0,0.0,0.0,0.0,0.0,0.0,0.0,0.0,0.0,0.0,0.0,0.0,0.0,0.0,0.0,0.0,0.0,0.0,0.0,0.0,0.0,0.0,0.0,0.0,0.0,0.0,5.2358,5.6994,6.0458,6.1135,6.1396,6.1781,6.2459,6.0766,5.965,5.9511,0.0,0.0,0.0,0.0,0.0,0.0,0.0,0.0,0.0,0.0,0.0,0.0,0.0,0.0,0.0,0.0,0.0,0.0,0.0,0.0,0.0,0.0,0.0,0.0,0.0,0.0,0.0,0.0,0.0,0.0,0.0,0.0,0.0,0.0,0.0,0.0,0.0,0.0,0.0,0.0,0.0,0.0,0.0,0.0,0.0,0.0,0.0,0.0,0.0,0.0,0.0,0.0,0.0,0.0,0.0,0.0,0.0,0.0,0.0,0.0,0.0,0.0,0.0,0.0,0.0,0.0,0.0,0.0,0.0,0.0,0.0,0.0,0.0,0.0,0.0,0.0,0.0,0.0,0.0,0.0,0.0,0.0,0.0,0.0,0.0,0.0,0.0,0.0,0.0,0.0,0.0,0.0,0.0,0.0,0.0,0.0,0.0,0.0,0.0,0.0,0.0,0.0,5.3629,5.8294,6.2133,6.3753,6.3361,6.3569,6.5095,6.2304,6.074,6.1395,0.0,0.0,0.0,0.0,0.0,0.0,0.0,0.0,0.0,0.0,0.0,0.0,0.0,0.0,0.0,0.0,0.0,0.0,0.0,0.0,0.0,0.0,0.0,0.0,0.0,0.0,0.0,0.0,0.0,0.0,0.0,0.0,0.0,0.0,0.0,0.0,0.0,0.0,0.0,0.0,0.0,0.0,0.0,0.0,0.0,0.0,0.0,0.0,0.0,0.0,0.0,0.0,0.0,0.0,0.0,0.0,0.0,0.0,0.0,0.0,4.5893,4.2508,0.0,0.0,0.0,0.0,0.0,0.0,0.0,0.0,0.0,0.0,0.0,0.0,0.0,0.0,0.0,0.0,0.0,0.0,0.0,0.0,0.0,0.0,0.0,0.0,0.0,0.0,0.0,0.0,0.0,0.0,0.0,0.0,0.0,0.0,0.0,0.0,0.0,0.0,0.0,0.0,5.6305,6.0395,6.3662,6.4712,6.5295,6.5708,6.6081,6.4838,6.3517,6.2391,6.0978,0.0,0.0,0.0,0.0,0.0,0.0,0.0,0.0,0.0,0.0,0.0,0.0,0.0,0.0,0.0,0.0,0.0,0.0,0.0,0.0,0.0,0.0,0.0,0.0,0.0,0.0,0.0,0.0,0.0,0.0,0.0,0.0,0.0,0.0,0.0,0.0,0.0,0.0,0.0,0.0,0.0,0.0,0.0,0.0,0.0,0.0,0.0,0.0,0.0,0.0,0.0,0.0,0.0,0.0,0.0,0.0,0.0,0.0,0.0,4.9356,4.6009,0.0,0.0,0.0,0.0,0.0,0.0,0.0,0.0,0.0,0.0,0.0,0.0,0.0,0.0,0.0,0.0,0.0,0.0,0.0,0.0,0.0,0.0,0.0,0.0,0.0,0.0,0.0,0.0,0.0,0.0,0.0,0.0,0.0,0.0,0.0,0.0,0.0,0.0,0.0,0.0,5.8474,6.2406,6.5523,6.6505,6.7325,6.8027,6.8411,6.6922,6.5751,6.5328,6.365,0.0,0.0,0.0,0.0,0.0,0.0,0.0,0.0,0.0,0.0,0.0,0.0,0.0,0.0,0.0,0.0,0.0,0.0,0.0,0.0,0.0,0.0,0.0,0.0,0.0,0.0,0.0,0.0,0.0,0.0,0.0,0.0,0.0,0.0,0.0,0.0,0.0,0.0,0.0,0.0,0.0,0.0,0.0,0.0,0.0,0.0,0.0,0.0,0.0,0.0,0.0,0.0,0.0,5.4164,5.5011,5.5164,5.5857,5.6549,5.6973,5.2779,5.0279,4.9125,4.7702,0.0,0.0,0.0,0.0,0.0,0.0,0.0,0.0,0.0,0.0,0.0,0.0,0.0,0.0,0.0,0.0,0.0,0.0,0.0,0.0,0.0,0.0,0.0,0.0,5.5934,5.7165,5.2202,0.0,0.0,0.0,0.0,0.0,0.0,0.0,0.0,0.0,0.0,0.0,6.0501,6.4219,6.7265,6.8281,6.9297,7.0156,7.0859,6.8867,6.7734,6.8164,6.5937,6.4062,0.0,0.0,0.0,0.0,0.0,0.0,0.0,0.0,0.0,0.0,0.0,0.0,0.0,0.0,0.0,0.0,0.0,0.0,0.0,0.0,0.0,0.0,0.0,0.0,0.0,0.0,0.0,0.0,0.0,0.0,0.0,0.0,3.8969,3.9892,0.0,0.0,0.0,0.0,0.0,0.0,0.0,0.0,0.0,0.0,0.0,0.0,0.0,5.0356,5.1395,5.3126,5.4395,5.5203,5.6203,5.7049,5.7819,5.7896,5.8011,5.8088,5.7434,0.0,5.3626,5.3433,0.0,0.0,0.0,0.0,0.0,0.0,0.0,0.0,0.0,0.0,0.0,0.0,0.0,0.0,0.0,0.0,0.0,0.0,0.0,0.0,0.0,0.0,5.7934,5.8396,5.8934,5.9127,0.0,5.5972,5.3703,5.2741,5.2626,5.2933,0.0,0.0,0.0,0.0,0.0,0.0,6.2606,6.5675,6.832,6.914,7.0703,7.1719,7.1836,7.082,6.9648,6.8281,6.7148,6.539,6.289,6.2573,0.0,0.0,0.0,0.0,0.0,0.0,0.0,0.0,0.0,0.0,0.0,0.0,0.0,0.0,0.0,0.0,0.0,0.0,0.0,0.0,0.0,0.0,0.0,0.0,0.0,0.0,0.0,0.0,0.0,3.8046,4.0123,4.2354,4.2624,4.3162,0.0,0.0,0.0,0.0,0.0,0.0,0.0,0.0,0.0,5.2818,5.3318,5.4164,5.5472,5.6703,5.7742,5.8588,5.9435,6.0281,6.1127,6.1127,6.1127,6.1127,6.1127,6.0473,5.9281,5.6896,5.4972,5.3472,0.0,0.0,0.0,0.0,5.2279,5.2395,5.3203,5.351,5.3587,5.4087,0.0,0.0,0.0,0.0,0.0,0.0,0.0,5.5703,0.0,0.0,6.0742,6.205,6.3089,6.3782,6.3782,6.232,6.0165,5.7319,5.7187,5.7995,5.9242,6.015,0.0,0.0,0.0,6.5061,6.4955,6.7596,6.9829,7.0741,7.2422,7.3476,7.3476,7.2656,7.164,7.039,6.9531,6.8086,6.5937,6.4805,6.2719,0.0,0.0,0.0,0.0,0.0,0.0,0.0,0.0,0.0,0.0,0.0,0.0,0.0,0.0,0.0,0.0,0.0,0.0,0.0,0.0,0.0,0.0,0.0,0.0,0.0,0.0,0.0,0.0,4.0931,4.2893,4.5624,4.6317,4.7163,0.0,0.0,0.0,0.0,0.0,0.0,5.1895,5.203,5.3415,5.634,5.6819,5.7665,5.8973,5.9973,6.0819,6.1435,6.2089,6.2743,6.3358,6.3358,6.3397,6.3435,6.3435,6.3435,6.3128,5.9473,5.7588,5.6973,5.6511,5.6357,5.6319,5.5934,5.5934,5.6242,5.711,5.7533,5.7841,5.8534,5.8457,5.805,5.7835,0.0,0.0,0.0,0.0,5.8787,6.0188,6.1728,6.319,6.4383,6.5782,6.6859,6.6898,6.65,6.5153,6.182,6.1458,6.2144,6.351,6.3846,0.0,6.5422,6.6109,6.6772,6.7554,6.9535,7.1354,7.2536,7.4023,7.4922,7.4922,7.4336,7.3594,7.2734,7.1836,7.0625,6.8906,6.7265,6.5508,6.3555,0.0,0.0,0.0,0.0,0.0,0.0,0.0,0.0,0.0,0.0,0.0,0.0,0.0,0.0,0.0,0.0,0.0,0.0,0.0,0.0,0.0,0.0,0.0,0.0,0.0,0.0,0.0,0.0,0.0,5.024,5.1779,0.0,0.0,0.0,0.0,5.4164,5.4164,5.4549,5.5395,5.563,5.6515,5.8325,5.9919,6.0781,6.0858,6.2358,6.3128,6.3166,6.3243,6.3358,6.3575,6.3575,6.3652,6.3743,6.3743,6.3743,6.3589,6.1473,6.0589,6.0396,5.8781,5.8165,5.828,5.8973,5.9781,6.0627,6.1636,6.2521,6.3253,6.3392,6.2367,6.0935,6.0095,5.9873,0.0,0.0,6.1643,6.2452,6.3214,6.4176,6.4946,6.4894,6.5538,6.6218,6.6397,6.6255,6.6024,0.0,6.4628,6.3951,6.4842,0.0,6.7487,6.7718,6.9181,7.0271,7.0452,7.1325,7.2576,7.4297,7.5273,7.582,7.582,7.5781,7.539,7.4531,7.3633,7.2383,7.0664,6.9687,6.8008,6.5508,6.4411,0.0,0.0,0.0,0.0,0.0,0.0,0.0,0.0,0.0,0.0,0.0,0.0,0.0,0.0,0.0,0.0,0.0,0.0,0.0,0.0,0.0,0.0,0.0,0.0,0.0,0.0,0.0,0.0,5.1548,5.3705,0.0,5.6049,5.6302,5.6571,5.6934,5.7088,5.7764,5.9056,5.9309,6.0171,6.185,6.2471,6.278,6.2805,6.3921,6.473,6.5293,6.5856,6.6434,6.7012,6.7,6.7027,6.7088,6.7088,6.7088,6.6972,6.573,6.4251,6.2698,6.2082,6.1828,6.189,6.2159,6.2814,6.3623,6.3984,6.4675,6.5397,6.5452,6.5452,6.5258,6.4372,6.4488,6.4893,6.4637,6.4808,6.5203,6.5895,6.6389,6.6973,6.7911,6.8872,6.9769,7.0375,7.0529,7.0529,7.0567,6.8308,6.6879,6.815,6.9089,6.9786,7.0246,7.0982,7.1675,7.2304,7.3125,7.414,7.5312,7.6211,7.6758,7.6758,7.6758,7.6367,7.5508,7.5156,7.418,7.2461,7.1523,7.039,6.8906,6.8036,6.6869,0.0,0.0,0.0,0.0,0.0,0.0,0.0,0.0,0.0,0.0,0.0,0.0,0.0,0.0,0.0,0.0,0.0,0.0,0.0,0.0,0.0,0.0,0.0,0.0,0.0,5.041,5.3197,5.3436,5.5847,5.76,5.7987,5.8739,5.9374,5.9727,6.0145,6.0877,6.1872,6.2116,6.2895,6.431,6.4587,6.4899,6.5164,6.5993,6.6688,6.723,6.7831,6.842,6.9001,6.8995,6.9045,6.9116,6.9116,6.9109,6.902,6.8501,6.7247,6.5625,6.4929,6.4658,6.4658,6.4658,6.5219,6.6012,6.6352,6.6877,6.7368,6.7095,6.7407,6.7719,6.6814,6.7399,6.8171,6.7594,6.7836,6.8366,6.8777,6.9225,6.981,7.0748,7.1719,7.2628,7.3268,7.3435,7.3482,7.352,7.1239,6.9628,7.0619,7.1229,7.1811,7.2585,7.2807,7.3281,7.4453,7.4844,7.5351,7.625,7.6875,7.7187,7.7187,7.7734,7.7578,7.6406,7.6875,7.6289,7.4258,7.3906,7.3476,7.289,7.2383,7.0656,6.7734,0.0,0.0,0.0,0.0,0.0,0.0,0.0,0.0,0.0,0.0,0.0,0.0,0.0,0.0,0.0,0.0,0.0,0.0,0.0,0.0,0.0,0.0,0.0,5.147,5.343,5.5394,5.623,5.8551,6.0094,6.0083,6.1637,6.2646,6.2639,6.338,6.3826,6.3884,6.4077,6.4602,6.5511,6.6268,6.7109,6.793,6.8609,6.8954,6.8954,6.8993,6.9118,6.9282,6.9321,6.9438,6.9609,6.9648,6.9616,6.9577,6.9577,6.9577,6.9344,6.7292,6.6474,6.6513,6.6513,6.7097,6.8034,6.9026,6.9448,6.9414,6.8633,6.8398,6.8242,6.7383,6.832,6.9648,6.9648,7.082,7.2031,7.1914,7.2601,7.3304,7.3164,7.3769,7.4414,7.4609,7.452,7.4434,7.4641,7.3301,7.2148,7.2109,7.2812,7.3672,7.4492,7.4648,0.0,7.6992,7.6445,7.6289,7.7148,7.7226,7.7226,7.7226,7.8711,7.8945,7.7305,7.8711,7.8515,7.6055,7.6719,7.7148,7.7109,7.7109,7.4648,6.957,0.0,0.0,0.0,0.0,0.0,0.0,0.0,0.0,0.0,0.0,0.0,0.0,0.0,0.0,0.0,0.0,0.0,0.0,0.0,0.0,0.0,5.2554,5.4529,5.4087,5.675,5.8828,5.9078,6.0939,6.2087,6.1896,6.3085,6.3725,6.3492,6.3904,6.4665,6.5761,6.6007,6.6811,6.8255,6.8507,6.875,6.8984,6.9796,7.0217,7.0217,7.0842,7.1178,7.1253,7.1884,7.2197,7.2305,7.293,7.32,7.3186,7.3186,7.3186,7.2873,6.9788,6.8577,6.8655,6.928,7.0452,7.1893,7.2795,7.3143,7.3125,7.289,7.2851,7.2812,7.2578,7.2812,7.3203,7.3203,7.3515,7.3828,7.3672,7.3924,7.4216,7.4007,7.4717,7.5469,7.5547,7.5999,7.6397,7.6459,7.6118,7.5351,7.4101,7.4609,7.5273,7.5508,7.6094,7.664,7.7148,7.6992,7.7187,7.8047,7.8125,7.8125,7.8125,7.8555,7.8359,7.7265,7.7617,7.7578,7.6875,7.6484,7.5976,7.5312,7.5312,7.4609,0.0,0.0,0.0,0.0,0.0,0.0,0.0,0.0,0.0,0.0,0.0,0.0,0.0,0.0,0.0,0.0,0.0,0.0,0.0,0.0,0.0,0.0,5.5625,5.7443,5.7798,5.9577,6.0945,6.1327,6.2656,6.3471,6.3332,6.4245,6.4916,6.5088,6.5615,6.6457,6.771,6.7893,6.8594,6.9883,6.9922,7.0117,7.0508,7.1367,7.1797,7.1797,7.2656,7.3086,7.3125,7.3594,7.3828,7.3867,7.4375,7.4609,7.4609,7.4609,7.4609,0.0,0.0,0.0,0.0,0.0,7.2969,7.3906,7.4414,7.4609,7.4609,7.4609,7.4609,7.4609,7.4609,7.4844,7.5156,7.5156,7.539,7.5664,7.5547,7.5586,7.5655,7.5534,7.5975,7.6445,7.6445,7.6856,7.7196,7.7181,7.7187,0.0,7.5859,7.6094,7.6562,7.6914,7.7109,7.7344,7.7695,7.7422,7.7539,7.8398,7.8515,7.8633,7.8984,7.9687,0.0,0.0,0.0,7.8633,7.8242,7.7773,0.0,0.0,0.0,0.0,0.0,0.0,0.0,0.0,6.8943,6.7913,0.0,0.0,0.0,0.0,0.0,0.0,0.0,0.0,0.0,0.0,0.0,0.0,0.0,0.0,0.0,0.0,5.887,6.0849,6.1715,6.2031,6.2383,6.3086,6.3906,6.4492,6.457,6.539,6.625,6.7148,6.789,6.8711,6.9492,6.9609,0.0,0.0,0.0,7.1406,7.2265,7.3047,7.3437,7.3476,7.4219,7.4609,7.4609,7.4687,7.4765,7.4765,7.4844,7.4883,7.4883,7.4883,7.4883,7.4883,7.4687,7.4648,7.4765,7.4765,7.4805,7.4883,7.4883,0.0,0.0,7.4883,7.4883,7.4883,7.4883,7.543,7.6055,7.6055,7.6601,7.7187,7.7187,7.7187,7.7187,7.7187,7.7187,7.7187,7.7187,7.7187,7.7226,7.7344,7.7344,7.7383,7.7461,7.7422,7.7617,7.8398,7.793,7.7773,7.8555,7.7969,7.7812,7.8672,7.8789,0.0,7.9805,8.125,8.1445,7.9805,8.0429,8.0508,7.9726,7.9687,7.9375,7.8633,7.9336,7.8164,7.5039,7.582,7.5742,7.4844,7.2305,7.1035,0.0,0.0,0.0,0.0,0.0,0.0,0.0,0.0,0.0,0.0,0.0,0.0,0.0,0.0,0.0,5.8456,6.0214,6.1746,6.2617,6.3945,6.4648,6.4101,6.4805,6.5625,6.6328,6.7187,6.8047,6.8945,6.914,6.9609,7.039,7.0469,7.1172,7.2734,7.2812,7.3203,7.4101,7.4258,7.4336,7.4336,0.0,0.0,7.4609,7.5312,7.5664,7.5703,7.6406,7.6719,7.6719,7.6719,7.6719,7.6562,7.5156,7.5039,7.5664,7.5664,7.6094,7.6719,7.6719,7.6719,7.6719,7.6719,7.6719,7.6719,7.6719,7.6797,0.0,7.6953,7.707,7.7187,7.7187,7.7187,7.7187,7.7187,7.7187,7.7187,7.7187,7.7187,7.7422,7.8125,7.8242,7.8437,7.9101,7.8672,7.832,7.8476,7.8906,7.9297,7.9453,7.9336,7.9531,8.0429,8.0508,8.0586,8.0742,8.1054,8.082,7.9765,7.9844,7.9883,7.9726,7.9687,7.9648,7.9453,7.9609,7.9062,7.7734,7.789,7.7539,7.664,7.4726,7.3472,0.0,0.0,0.0,0.0,0.0,0.0,0.0,0.0,0.0,0.0,0.0,5.4805,5.5234,0.0,5.957,6.0898,6.2187,6.3476,6.4765,6.5703,6.6094,6.5664,6.6367,6.7226,6.8086,6.8555,6.914,7.0039,7.0117,7.0664,7.1914,7.1992,7.2617,7.3906,7.3945,7.414,7.4609,7.5039,7.5234,7.5273,7.5703,7.5898,7.5937,7.6367,7.6562,7.6562,7.6992,7.7187,7.7187,7.7187,7.7187,7.7109,7.625,7.6172,7.6562,7.6562,7.6836,7.7187,7.7187,7.7187,7.7187,7.7187,7.7187,7.7187,7.7187,7.7187,7.7187,7.7187,7.7187,7.7187,7.7187,7.7187,7.7187,7.7187,7.7539,7.7851,7.7851,7.8164,7.8594,7.9023,7.9101,7.9219,7.9648,7.9726,7.9609,7.918,7.9453,7.9687,7.9687,7.9687,8.0195,8.1523,8.164,8.1992,8.289,8.2539,8.1914,8.1054,8.0586,8.0156,7.9726,7.9687,7.9687,7.9687,7.9687,7.9492,7.9101,7.9101,7.8867,7.8437,7.7578,7.6719,0.0,0.0,0.0,0.0,0.0,0.0,0.0,5.1055,5.2461,5.2617,5.5273,5.7812,5.8515,6.0039,6.1601,6.3008,6.414,6.5312,6.6719,6.7187,6.7461,6.7617,6.8125,6.875,6.957,6.9648,7.0078,7.1133,7.1211,7.1875,7.3476,7.3555,7.3945,7.4844,7.4844,7.4922,7.5117,7.5781,7.6133,7.6172,7.6875,7.7187,7.7187,7.7187,7.7187,7.7187,7.7187,7.7187,7.7187,7.7187,7.7187,7.7187,7.7187,7.7187,7.7187,7.7187,7.7187,7.7187,7.7187,7.7187,7.7187,7.7187,7.7187,7.7187,7.7187,7.7187,7.7226,7.7383,7.7461,7.75,7.7656,7.7695,7.7695,7.7695,7.8203,7.8711,7.8711,7.9258,7.9765,7.9922,7.9961,8.0,8.0195,8.1054,8.1367,8.0117,8.0117,8.0273,8.0429,8.0469,8.1133,8.2851,8.3047,8.3672,8.5273,8.4765,8.4062,8.3359,8.2656,8.1875,8.1015,8.0976,8.0898,8.0703,8.0703,8.0625,8.0469,8.0469,8.0351,8.0195,8.039,7.9844,4.7344,4.7578,4.9062,5.2184,5.2417,5.2692,0.0,5.6367,5.625,5.6992,5.9297,6.1172,6.125,6.2695,6.3945,6.4101,6.5547,6.668,6.6875,6.8164,6.9414,7.0195,6.9687,6.9609,7.0469,7.0547,7.125,7.289,7.3008,7.3437,7.4414,7.4453,7.4844,7.5742,7.5742,7.6133,7.6914,7.6992,7.7031,7.707,7.7148,7.7187,7.7187,7.7187,7.7187,7.7187,7.7187,7.7187,7.7187,7.7187,7.7187,7.7187,7.7187,7.7187,7.7187,7.7187,7.7187,7.7187,7.7187,7.7187,7.7187,7.7187,7.7187,7.7187,7.7187,7.7187,7.7344,7.8125,7.8359,7.8515,7.9219,7.9414,7.9414,7.9414,7.9492,7.957,7.957,7.9648,7.9922,8.0703,8.0859,8.1094,8.1875,8.3359,8.3633,8.1211,8.1523,8.2304,8.3047,8.3164,8.3828,8.5586,8.5742,8.6172,8.7148,8.7109,8.7031,8.6914,8.6836,8.6367,8.5508,8.5469,8.5117,8.4336,8.4336,8.3945,8.3164,8.3164,8.2773,8.2031,8.2812,8.1875,5.1133,5.1601,5.2461,5.4883,5.5234,5.5469,5.7461,5.8359,5.9062,5.9922,6.1758,6.3203,6.3203,6.4219,6.5234,6.5742,6.6836,6.8008,6.8984,6.9726,7.0664,7.2031,7.1875,7.1797,7.2187,7.2226,7.2734,7.3945,7.4062,7.4453,7.5312,7.5351,7.5742,7.664,7.664,7.6836,7.7187,7.7187,7.7187,7.7187,7.7187,7.7187,7.7187,7.7187,7.7187,7.7187,7.7187,7.7187,7.7187,7.7187,7.7187,7.7265,7.7773,7.7969,7.789,7.7383,7.7187,7.7265,7.7773,7.7969,7.8047,7.8515,7.8633,7.8633,7.8633,7.8633,7.8711,7.9101,7.9219,7.9297,7.9609,7.9687,7.9687,7.9687,8.0078,8.0469,8.0469,8.0859,8.1484,8.2344,8.25,8.2969,8.4336,8.5156,8.5469,8.4883,8.4648,8.4687,8.5078,8.5117,8.5781,8.7461,8.8125,8.8554,8.8906,8.8476,8.8203,8.8203,8.7773,8.7344,8.6953,8.6484,8.6015,8.5664,8.5156,8.4726,8.4375,8.4375,8.4179,8.3828,8.4179,8.3789,5.3867,5.4531,5.5156,5.6875,5.7656,5.8242,5.9101,6.043,6.164,6.2305,6.3594,6.4648,6.4648,6.5351,6.625,6.7109,6.7969,6.9023,7.0508,7.1094,7.1875,7.3164,7.3515,7.375,7.3984,7.3789,7.4023,7.4883,7.4961,7.5351,7.6211,7.625,7.6562,7.7187,7.7187,7.7187,7.7187,7.7187,7.7187,7.7187,7.7187,7.7187,7.7187,7.7187,7.7187,7.7226,7.7461,7.7578,7.7578,7.7812,7.789,7.7969,7.8594,7.8828,7.875,7.8125,7.789,7.7969,7.8594,7.8828,7.8945,7.9492,7.9687,7.9687,7.9687,7.9687,7.9765,8.0,8.0078,8.0117,8.0351,8.0429,8.0429,8.0429,8.1094,8.1719,8.1719,8.2383,8.3203,8.3828,8.3945,8.4453,8.5937,8.6562,8.7109,8.7734,8.7695,8.7422,8.6953,8.7304,8.8086,8.9297,9.0195,9.0703,9.0703,9.0156,8.9765,8.9765,8.9219,8.8789,8.8554,8.7929,8.7383,8.6914,8.6289,8.5703,8.5273,8.5273,8.5117,8.4922,8.5156,8.5273,5.5234,5.5898,5.6953,5.8672,6.0351,6.1758,6.2656,6.3555,6.418,6.4219,6.4922,6.5547,6.5547,6.6289,6.7148,6.8008,6.8828,6.9687,7.0586,7.2148,7.3242,7.3281,7.4062,7.4883,7.5742,7.5078,7.4922,7.5781,7.5859,7.625,7.7109,7.7148,7.7187,7.7187,7.7187,7.7187,7.7187,7.7187,7.7187,7.7187,7.7187,7.7187,7.7187,7.7187,7.7187,7.7265,7.8086,7.8476,7.8515,7.9297,7.9609,7.9648,7.9648,7.9648,7.9648,7.9648,7.9609,7.9648,7.9648,7.9648,7.9687,7.9687,7.9687,7.9687,7.9687,7.9687,7.9883,8.0703,8.0976,8.1172,8.1992,8.2226,8.2226,8.2226,8.289,8.3515,8.3515,8.4219,8.4844,8.4844,8.4844,8.5156,8.6054,8.7539,8.8633,8.8672,9.0078,9.0547,8.8828,9.0117,9.1172,9.1211,9.1992,9.2539,9.2539,9.25,9.2461,9.2461,9.2461,9.207,9.1211,9.1172,9.0351,8.8672,8.8594,8.7773,8.6172,8.6172,8.5742,8.4922,8.5781,8.6172,5.6328,5.7617,5.9414,6.0586,6.1719,6.2773,6.3672,6.4531,6.5156,6.5156,6.539,6.5586,6.5586,6.5859,6.6523,6.7969,6.8906,7.0156,7.2148,7.293,7.3711,7.4883,7.5273,7.5781,7.668,7.5976,7.582,7.6719,7.6758,7.6875,7.7187,7.7187,7.7187,7.7187,7.7187,7.7187,7.7187,7.7187,7.7187,7.7187,7.7187,7.75,7.8047,7.8047,7.8359,7.8867,7.918,7.9297,7.9336,7.9609,7.9687,7.9765,8.0351,8.0547,8.0625,8.1211,8.1445,8.1328,8.0742,8.0547,8.0664,8.125,8.1445,8.1445,8.1445,8.1445,8.1484,8.1797,8.2265,8.2773,8.3086,8.3594,8.4023,8.4023,8.4258,8.4609,8.5195,8.5547,8.6094,8.7226,8.7422,8.789,8.9336,9.0039,9.0625,9.1211,9.1289,9.1094,9.0508,9.1445,9.2148,9.2148,9.2422,9.2617,9.2617,9.2617,9.2617,9.2617,9.2617,9.2461,9.2187,9.1601,9.1015,9.0429,8.9297,8.8437,8.7851,8.7304,8.6914,8.664,8.6914,8.707,5.7969,5.9375,6.1055,6.1953,6.3047,6.4062,6.4648,6.5195,6.5586,6.5586,6.5586,6.5586,6.5586,6.5859,6.664,6.8398,6.9101,7.0351,7.293,7.3555,7.4297,7.5742,7.6172,7.6562,7.7148,7.668,7.6601,7.7148,7.7187,7.7187,7.7187,7.7187,7.7187,7.7187,7.7187,7.7187,7.7187,7.7187,7.7344,7.7656,7.7969,7.8398,7.8945,7.8945,7.9219,7.9726,8.0039,8.0156,8.0195,8.0508,8.0625,8.0664,8.125,8.1445,8.1523,8.2109,8.25,8.2656,8.1758,8.1445,8.1601,8.2461,8.2773,8.2812,8.3125,8.3242,8.3242,8.3242,8.3633,8.4062,8.4062,8.4492,8.4883,8.4883,8.5156,8.5586,8.6484,8.6875,8.75,8.8906,8.914,8.9609,9.1054,9.1562,9.207,9.2929,9.2578,9.2109,9.1797,9.2539,9.3047,9.3047,9.3359,9.3515,9.3515,9.3515,9.3515,9.3515,9.3515,9.3515,9.3515,9.3008,9.2539,9.2226,9.1133,9.039,9.0078,8.9258,8.8867,8.8867,8.8554,8.8398,5.9961,6.1055,6.1992,6.2851,6.4336,6.5586,6.5586,6.5586,6.5586,6.5547,6.5508,6.5508,6.5586,6.6289,6.7422,6.9258,6.9492,7.039,7.3047,7.4101,7.4922,7.5859,7.6719,7.7187,7.7187,7.7187,7.7187,7.7187,7.7187,7.7187,7.7187,7.7187,7.7187,7.7187,7.7187,7.7187,7.7187,7.7226,7.7695,7.8555,7.9336,7.9726,7.9765,7.9765,7.9805,7.9883,8.0703,8.1054,8.1133,8.1953,8.2344,8.2383,8.2383,8.2383,8.2422,8.2422,8.2969,8.3554,8.2734,8.2422,8.2578,8.3398,8.3672,8.3828,8.4648,8.4883,8.4883,8.4883,8.4922,8.4961,8.4961,8.5,8.5039,8.5078,8.5742,8.6562,8.75,8.8281,8.9101,8.9961,9.0156,9.0469,9.1289,9.2148,9.3008,9.3789,9.3906,9.3633,9.2812,9.3476,9.3945,9.3906,9.4648,9.5117,9.5078,9.5078,9.5078,9.5117,9.5117,9.5156,9.5195,9.5195,9.4804,9.3984,9.3906,9.3476,9.2656,9.1797,9.1367,9.1367,9.0508,9.0117,6.0469,6.1523,6.289,6.375,6.4805,6.5586,6.5586,6.5586,6.543,6.4765,6.4101,6.4062,6.5351,6.5781,6.6914,6.9922,7.039,7.1523,7.4765,7.4883,7.5156,7.668,7.707,7.7187,7.7187,7.7187,7.7187,7.7187,7.7187,7.7187,7.7187,7.7187,7.7187,7.7187,7.7187,7.7187,7.7187,7.7851,7.8594,7.9414,7.9609,8.0039,8.0664,8.0664,8.1015,8.164,8.1875,8.1953,8.1992,8.2226,8.2695,8.3281,8.3281,8.3672,8.4258,8.4258,8.4375,8.4531,8.4297,8.4258,8.4258,8.4492,8.457,8.4609,8.4844,8.4883,8.4883,8.4883,8.5351,8.5859,8.5859,8.6367,8.6992,8.7578,8.789,8.8476,9.0,9.0508,9.0898,9.1758,9.2461,9.2969,9.3203,9.3945,9.4375,9.3945,9.3906,9.4062,9.4492,9.4726,9.4609,9.3984,9.4101,9.3984,9.332,9.3242,9.3554,9.4179,9.4219,9.4531,9.5156,9.5195,9.5117,9.4883,9.4219,9.3789,9.3554,9.2695,9.2265,9.2265,9.2031,9.1601,6.1015,6.2226,6.3789,6.4648,6.5234,6.5586,6.5586,6.5,6.4336,6.3828,6.3359,6.3437,6.4765,6.5664,6.7031,6.9687,7.0781,7.2226,7.4961,7.5234,7.5664,7.7031,7.7187,7.7187,7.7187,7.7187,7.7187,7.7187,7.7187,7.7187,7.7187,7.7187,7.7187,7.7187,7.7578,7.793,7.8281,7.914,7.9805,8.0273,8.0664,8.1094,8.1562,8.1562,8.1836,8.2304,8.2304,8.2539,8.289,8.3281,8.3711,8.4219,8.4609,8.5039,8.5469,8.5469,8.5937,8.6562,8.6562,8.6836,8.6953,8.582,8.5469,8.5625,8.6328,8.6562,8.664,8.7031,8.7226,8.7304,8.7304,8.7383,8.7695,8.8515,8.8711,8.9297,9.1406,9.1875,9.2226,9.3515,9.414,9.4453,9.4453,9.457,9.4609,9.4492,9.414,9.4219,9.5078,9.4883,9.4453,9.3945,9.4258,9.4258,9.3789,9.375,9.3945,9.4453,9.4453,9.4687,9.5195,9.5195,9.5195,9.5195,9.4726,9.4453,9.4453,9.3594,9.3164,9.3164,9.2773,9.2344,6.1758,6.3164,6.4531,6.5547,6.5703,6.5547,6.5312,6.4101,6.293,6.2695,6.2734,6.3125,6.4101,6.5547,6.7226,6.9258,7.0859,7.2578,7.4648,7.5586,7.6406,7.7265,7.7383,7.7344,7.7226,7.7187,7.7187,7.7187,7.7187,7.7187,7.7187,7.7187,7.7265,7.7383,7.8203,7.9062,7.9844,8.0625,8.1054,8.1172,8.1953,8.2304,8.2304,8.2304,8.2344,8.2461,8.2461,8.3047,8.3984,8.4765,8.5195,8.5469,8.625,8.6601,8.6719,8.6719,8.7617,8.8867,8.8867,8.9375,8.9648,8.7422,8.6719,8.6992,8.8437,8.8867,8.9023,8.9804,8.9453,8.8906,8.9023,8.8515,8.8242,8.9179,8.9375,9.0039,9.2422,9.2969,9.3398,9.4922,9.5195,9.5195,9.5195,9.457,9.4297,9.4922,9.4375,9.414,9.4765,9.4414,9.4023,9.3906,9.457,9.4961,9.4844,9.4844,9.4883,9.5039,9.5039,9.5078,9.5195,9.5195,9.5195,9.5195,9.5195,9.5195,9.5195,9.4453,9.4062,9.4062,9.3281,9.289,6.3203,6.4062,6.4687,6.6289,6.6133,6.5234,6.3789,6.3203,6.2578,6.1133,6.1406,6.2422,6.4023,6.4531,6.6015,6.9844,7.0742,7.2305,7.6211,7.6875,7.7305,7.8164,7.8281,7.8008,7.7265,7.7187,7.7187,7.7187,7.7187,7.7187,7.7187,7.7187,7.7539,7.8242,7.9062,7.9883,8.0781,8.0937,8.1367,8.207,8.2226,8.2304,8.2304,8.2304,8.2695,8.3359,8.3359,8.4297,8.5742,8.5898,8.6797,8.8047,8.8203,8.8711,8.9336,8.9336,8.9531,8.9765,8.9765,8.9883,8.9922,8.9492,8.9336,8.9414,8.9687,8.9765,8.9804,8.9961,8.9883,8.9922,9.0664,9.0742,9.1054,9.2617,9.3008,9.332,9.4492,9.4765,9.4844,9.5156,9.5195,9.5195,9.5195,9.5078,9.4765,9.4219,9.3984,9.3672,9.3125,9.4179,9.4687,9.3984,9.4023,9.3828,9.3125,9.3047,9.3359,9.4062,9.414,9.4453,9.5156,9.5195,9.5195,9.5195,9.5195,9.5195,9.5195,9.5039,9.4961,9.4961,9.4804,9.4375,6.3164,6.4297,6.5195,6.6015,6.5586,6.4609,6.3281,6.2656,6.2109,6.125,6.1406,6.2109,6.3398,6.3984,6.5273,6.8242,6.9844,7.1758,7.4765,7.6328,7.7539,7.8398,7.8867,7.8945,7.8555,7.8515,7.832,7.789,7.8242,7.8125,7.7265,7.7617,7.8476,7.9765,8.0195,8.0781,8.1679,8.1679,8.1875,8.2304,8.2304,8.2304,8.2304,8.2773,8.3203,8.3633,8.457,8.5664,8.6953,8.7812,8.8633,8.9414,8.9883,9.0312,9.0664,9.0664,9.0976,9.1367,9.1367,9.1367,9.1445,9.1875,9.1094,9.0156,9.1094,9.1367,9.1523,9.2461,9.2383,9.2148,9.2539,9.2304,9.2304,9.3594,9.4609,9.5351,9.5781,9.5898,9.5898,9.5898,9.5508,9.5195,9.5195,9.4804,9.4375,9.3945,9.3515,9.3086,9.2656,9.332,9.3672,9.3281,9.3203,9.3047,9.2656,9.2617,9.2773,9.3203,9.3203,9.3398,9.3828,9.3867,9.3867,9.3867,9.3867,9.3867,9.3867,9.3867,9.3867,9.3867,9.3867,9.3633,6.293,6.414,6.5117,6.5508,6.4922,6.4023,6.2969,6.2344,6.1836,6.1289,6.1289,6.164,6.2305,6.3008,6.4101,6.6015,6.8359,7.0703,7.2969,7.5547,7.7578,7.8633,7.9492,7.9922,7.9726,7.9687,7.9375,7.8555,7.9101,7.8945,7.7812,7.8555,7.9648,8.0976,8.1172,8.1601,8.2304,8.2304,8.2304,8.2304,8.25,8.2578,8.2617,8.3672,8.4258,8.4531,8.6054,8.7344,8.8437,8.9726,9.039,9.0625,9.1328,9.1562,9.1562,9.1562,9.1992,9.2617,9.2812,9.289,9.3008,9.3906,9.2656,9.1133,9.2695,9.3164,9.3437,9.4804,9.4726,9.4219,9.4414,9.3945,9.3633,9.4492,9.5742,9.6719,9.6523,9.6484,9.6445,9.625,9.5508,9.4922,9.4922,9.4219,9.3633,9.3633,9.3047,9.2617,9.2617,9.2617,9.2617,9.2617,9.2617,9.2617,9.2617,9.2617,9.2617,9.2617,9.2617,9.2617,9.2617,9.2617,9.2617,9.2617,9.2617,9.2617,9.2617,9.2617,9.2617,9.2617,9.2617,9.2617,6.3515,6.3711,6.3633,6.5195,6.4922,6.3867,6.2187,6.2383,6.2226,5.9922,6.0,6.0547,6.0625,6.0703,6.1601,6.414,6.6055,6.8672,7.2734,7.5547,7.7773,7.9414,8.0351,8.0586,7.9765,7.9687,7.9375,7.8555,7.8555,7.8867,7.9453,8.0312,8.0859,8.1015,8.1758,8.2226,8.2304,8.2304,8.2304,8.2304,8.3086,8.3476,8.3554,8.5195,8.6406,8.7187,8.8086,8.9414,9.0976,9.1133,9.164,9.2383,9.2461,9.2461,9.2461,9.2461,9.2539,9.2695,9.3515,9.3789,9.3906,9.4804,9.4375,9.3711,9.4687,9.4961,9.5,9.5156,9.5156,9.5273,9.6054,9.6211,9.6367,9.7148,9.7461,9.7383,9.664,9.6484,9.6289,9.5469,9.4609,9.4023,9.4023,9.3281,9.2734,9.2734,9.2656,9.2617,9.2617,9.2617,9.2617,9.2617,9.2617,9.2617,9.2617,9.2617,9.2617,9.2617,9.2617,9.2617,9.2617,9.2617,9.2617,9.2617,9.2617,9.2617,9.2617,9.2617,9.2617,9.2617,9.2617,9.2617,6.2969,6.3633,6.3828,6.3984,6.3789,6.3203,6.1992,6.1562,6.1133,6.0117,5.9805,5.9844,6.0312,6.039,6.1094,6.3164,6.4961,6.7422,7.1211,7.3984,7.664,7.9375,8.0469,8.1054,8.125,8.125,8.1133,8.082,8.1289,8.1719,8.2031,8.1367,8.125,8.1758,8.2617,8.2812,8.2304,8.3359,8.3594,8.3086,8.3984,8.4648,8.5195,8.6445,8.7422,8.8281,8.9687,9.0664,9.1328,9.1875,9.2304,9.2617,9.2617,9.2617,9.2617,9.2617,9.2929,9.3437,9.3789,9.4258,9.4844,9.5703,9.5742,9.5547,9.5898,9.5976,9.6094,9.6562,9.6719,9.6797,9.7148,9.6875,9.6562,9.6914,9.6562,9.6094,9.5781,9.5312,9.4844,9.4492,9.3711,9.3125,9.3125,9.2812,9.2617,9.2617,9.2617,9.2617,9.2617,9.2617,9.2617,9.2617,9.2617,9.2617,9.2617,9.2617,9.2617,9.2617,9.2617,9.2617,9.2617,9.2617,9.2617,9.2617,9.2617,9.2617,9.2617,9.2617,9.2617,9.2617,9.2617,9.2617,6.2226,6.3047,6.3515,6.3398,6.3008,6.2383,6.1523,6.0859,6.0195,5.9414,5.9023,5.8984,5.957,5.9883,6.0508,6.1992,6.3906,6.6328,6.9492,7.2656,7.5781,7.8984,8.0547,8.164,8.2226,8.2304,8.25,8.3047,8.3398,8.3828,8.4336,8.2734,8.2031,8.2656,8.3281,8.332,8.2695,8.414,8.4609,8.3984,8.5117,8.5976,8.664,8.8008,8.8945,8.9531,9.1054,9.1679,9.1719,9.2344,9.2617,9.2617,9.2617,9.2617,9.2617,9.289,9.3359,9.3984,9.4492,9.5078,9.5703,9.6562,9.6836,9.6836,9.6836,9.6836,9.6953,9.7539,9.7695,9.7656,9.7422,9.6914,9.6445,9.6172,9.5664,9.5117,9.4883,9.4336,9.3828,9.3554,9.3008,9.2617,9.2617,9.2617,9.2617,9.2617,9.2617,9.2617,9.2617,9.2617,9.2617,9.2617,9.2617,9.2617,9.2617,9.2617,9.2617,9.2617,9.2617,9.2617,9.2617,9.2617,9.2617,9.2617,9.2617,9.2617,9.2617,9.2617,9.2617,9.2617,9.2617,9.2617,6.1484,6.1719,6.2148,6.3867,6.3008,6.1484,6.0625,6.039,5.9687,5.7148,5.7305,5.793,5.793,5.8633,5.9492,6.0273,6.2617,6.5234,6.7851,7.1914,7.5586,7.8203,8.0742,8.2304,8.2304,8.2304,8.3008,8.4726,8.4062,8.4336,8.6094,8.4531,8.3594,8.3594,8.3594,8.3594,8.3594,8.4453,8.4883,8.4922,8.664,8.7461,8.7578,9.0117,9.1289,9.1328,9.2187,9.2578,9.2578,9.2617,9.2617,9.2617,9.2617,9.2617,9.2695,9.3554,9.3906,9.414,9.5859,9.6484,9.6601,9.7422,9.7695,9.7695,9.7695,9.7695,9.7695,9.7695,9.7695,9.7539,9.6719,9.6523,9.6289,9.5429,9.5195,9.4961,9.4101,9.3906,9.3633,9.2773,9.2617,9.2617,9.2617,9.2617,9.2617,9.2617,9.2617,9.2617,9.2617,9.2617,9.2617,9.2617,9.2617,9.2617,9.2617,9.2617,9.2617,9.2617,9.2617,9.2617,9.2617,9.2617,9.2617,9.2617,9.2617,9.2617,9.2617,9.2617,9.2617,9.2617,9.2617,9.2617,5.9609,6.0,6.0117,6.0664,6.039,5.9765,5.8906,5.8242,5.7578,5.6758,5.6367,5.668,5.8476,5.9023,5.9844,6.1836,6.3359,6.543,6.8633,7.1758,7.4883,7.8125,8.0742,8.2539,8.3125,8.3711,8.4297,8.4844,8.5742,8.625,8.6211,8.5664,8.5117,8.4492,8.4492,8.4492,8.4492,8.5937,8.6679,8.6679,8.7773,8.8945,9.0117,9.0937,9.164,9.2187,9.2461,9.2617,9.2617,9.2617,9.2617,9.2617,9.2617,9.2969,9.3515,9.3789,9.4648,9.5742,9.6328,9.6875,9.7344,9.7617,9.7695,9.7695,9.7695,9.7695,9.7695,9.7695,9.7304,9.6836,9.6562,9.5625,9.4648,9.4375,9.3867,9.3359,9.3086,9.3008,9.2929,9.2656,9.2617,9.2617,9.2617,9.2617,9.2617,9.2617,9.2617,9.2617,9.2617,9.2617,9.2617,9.2617,9.2617,9.2617,9.2617,9.2617,9.2617,9.2617,9.2617,9.2617,9.2617,9.2617,9.2617,9.2617,9.2617,9.2617,9.2617,9.2617,9.2617,9.2617,9.3203,9.3476,5.7578,5.8476,5.8789,5.9101,5.8711,5.8008,5.7109,5.625,5.5625,5.5625,5.5469,5.6015,5.8281,5.8984,6.0039,6.2578,6.3711,6.5625,6.9414,7.2187,7.5312,7.9453,8.1328,8.2656,8.3515,8.4375,8.5039,8.5351,8.6719,8.7265,8.6719,8.6367,8.6094,8.5898,8.5547,8.539,8.539,8.7109,8.7969,8.7969,8.914,9.0234,9.1328,9.164,9.2109,9.2617,9.2617,9.2617,0.0,9.2617,9.2617,9.2617,9.2969,9.3437,9.3984,9.4648,9.5586,9.6523,9.6836,9.7265,9.7695,9.7695,9.7695,9.7695,9.7695,9.7695,9.7656,9.7344,9.6875,9.6367,9.5703,9.4726,9.3828,9.3476,9.3008,9.2617,9.2617,9.2617,9.2617,9.2617,9.2617,9.2617,9.2617,9.2617,9.2617,9.2617,9.2617,9.2617,9.2617,9.2617,9.2617,9.2617,9.2617,9.2734,9.3047,9.2773,9.2734,9.3086,9.3086,9.3242,9.3554,9.3594,9.3594,9.3594,9.3594,9.3594,9.3594,9.3594,9.3594,9.3594,9.414,9.4375,0.0,5.6992,5.8008,5.8828,5.789,5.6562,5.5664,5.4844,0.0,5.4297,5.4922,5.6015,5.7773,5.8789,6.0195,6.2773,6.3906,6.5976,7.0273,7.3242,7.6797,8.1719,8.2304,8.2656,8.3594,8.4414,8.5273,8.6211,8.7031,8.75,8.75,8.6719,8.664,8.7461,8.6719,8.6289,8.6289,8.789,8.8711,8.8828,9.0508,9.1328,9.1406,9.2226,9.2617,9.2617,9.2617,9.2617,9.2617,9.2617,9.2656,9.2773,9.3594,9.3984,9.4297,9.5898,9.6523,9.6679,9.7422,9.7695,9.7695,9.7695,9.7695,9.7695,9.7617,9.7617,9.7461,9.6719,9.6406,9.5937,9.4336,9.3867,9.3594,9.2773,9.2617,9.2617,9.2617,9.2617,9.2617,9.2617,9.2617,9.2617,9.2617,9.2617,9.2617,9.2617,9.2617,9.2617,9.2617,9.2617,9.2617,9.2617,9.2656,9.3008,9.3828,9.3164,9.3047,9.3945,9.3984,9.4375,9.5156,9.5195,9.5195,9.5195,9.5195,9.5195,9.5195,9.5195,9.5195,9.5195,9.5273,9.5273,5.2226,0.0,5.6953,5.7148,5.789,5.8359,0.0,5.7148,5.6992,5.6992,5.7148,5.7812,5.9492,6.0508,6.1953,6.457,6.5703,6.7773,7.2109,7.6055,7.9453,8.1992,8.2304,8.289,8.4453,8.4765,8.5547,8.707,8.7383,8.75,8.75,8.7304,8.7304,8.75,8.7304,8.7187,8.7187,8.8203,8.9023,8.9726,9.0781,9.164,9.2304,9.25,9.2617,9.2617,9.2617,9.2617,9.2617,9.2617,9.3008,9.3594,9.3828,9.4726,9.5937,9.6367,9.6875,9.7461,9.7617,9.7695,9.7695,9.7695,9.7695,9.7578,9.6953,9.6797,9.6758,9.6562,9.5547,9.4414,9.4023,9.3398,9.2851,9.2656,9.2617,9.2617,9.2617,9.2617,9.2617,9.2617,9.2617,9.2617,9.2617,9.2617,9.2617,9.2617,9.2617,9.2617,9.2617,9.2617,9.2617,9.2617,9.3203,9.3672,9.3867,9.3711,9.3984,9.4844,9.4883,9.5,9.5195,9.5195,9.5195,9.5195,9.5195,9.5195,9.5195,9.5195,9.5195,9.5234,9.5898,9.6172,5.0625,5.3086,5.5508,5.5898,5.6992,5.789,5.7422,5.7305,5.7422,5.7812,5.8203,5.8906,6.0156,6.1758,6.3633,6.5859,6.7578,7.0156,7.4492,7.7734,8.0195,8.1523,8.2422,8.3437,8.4765,8.5273,8.6054,8.7383,8.75,8.75,8.75,8.75,8.75,8.75,8.75,8.7695,8.8047,8.8867,8.9726,9.0625,9.1484,9.2148,9.2617,9.2617,9.2617,9.2617,9.2617,9.2617,9.2617,9.3047,9.3476,9.3984,9.4765,9.5664,9.6523,9.6914,9.7344,9.7695,9.7695,9.7695,9.7695,9.7695,9.7461,9.707,9.664,9.5937,9.5312,9.5312,9.4648,9.3828,9.3398,9.2969,9.2617,9.2617,9.2617,9.2617,9.2617,9.2617,9.2617,9.2617,9.2617,9.2617,9.2617,9.2617,9.2617,9.2617,9.2617,9.2734,9.3164,9.3203,9.3515,9.4297,9.4804,9.5234,9.5625,9.5625,9.5859,9.6328,9.6015,9.6133,9.6914,9.6562,9.6367,9.6367,9.6367,9.6367,9.6367,9.6367,9.6367,9.6367,9.6836,9.7031,4.9961,5.2266,5.457,5.5312,5.6367,5.7226,5.7344,5.7383,5.7578,5.832,5.9062,5.9883,6.082,6.289,6.5117,6.6992,6.9765,7.3086,7.7031,7.9023,8.0429,8.1289,8.2695,8.3984,8.5,8.5781,8.6562,8.7422,8.75,8.75,8.75,8.75,8.75,8.75,8.7617,8.8086,8.8906,8.9648,9.0429,9.1328,9.2187,9.2617,9.2617,9.2617,9.2617,9.2617,9.2617,0.0,9.2656,9.3554,9.3984,9.4258,9.5859,9.6562,9.6758,9.7461,9.7695,9.7695,9.7695,9.7695,9.7695,9.7578,9.707,9.6445,9.6172,9.5078,9.3867,9.375,9.3711,9.3515,9.2773,9.2617,9.2617,9.2617,9.2617,9.2617,9.2617,9.2617,9.2617,9.2617,9.2617,9.2617,9.2617,9.2617,9.2617,9.2617,9.2695,9.3086,9.3789,9.414,9.4844,9.6328,9.6719,9.7109,9.7656,9.7812,9.7969,9.8086,9.7344,9.7578,9.914,9.8359,9.789,9.789,9.7773,9.7695,9.7695,9.7695,9.7695,9.7695,9.7695,9.7695,4.9961,5.3125,5.6211,5.6367,5.8125,6.0,6.0742,6.0937,6.0976,6.1094,6.1211,6.1797,6.3398,6.4648,6.6172,6.8633,7.3047,7.6914,7.9023,8.082,8.2226,8.3086,8.3437,8.4219,8.5859,8.6133,8.6562,8.7422,8.75,8.75,8.75,8.75,8.75,8.75,8.8164,8.8945,8.9804,8.9922,9.0429,9.1328,9.2187,9.2617,9.2617,9.2617,9.2617,9.2617,0.0,9.2617,9.2656,9.3554,9.4336,9.5117,9.6094,9.6914,9.7539,9.7656,9.7695,9.7695,9.7695,9.7695,9.7578,9.6914,9.6601,9.6211,9.4765,9.4101,9.375,9.3008,9.2812,9.2773,9.2617,9.2617,9.2617,9.2617,9.2617,9.2617,9.2617,9.2617,9.2617,9.2617,9.2617,9.2617,9.2617,9.2617,9.2617,9.2617,9.3242,9.375,9.3867,9.5195,9.6211,9.6484,9.7773,9.8359,9.7734,9.8398,9.9101,9.9844,9.9101,9.9062,10.0117,9.9258,9.8789,9.8789,9.8086,9.7695,9.7695,9.7695,9.7695,9.7695,9.7695,9.7695,5.0625,5.3672,5.6836,5.7773,5.9922,6.2031,6.289,6.3086,6.3086,6.3086,6.3476,6.4219,6.5469,6.7148,6.9648,7.3672,7.6328,7.8476,8.0156,8.1094,8.1914,8.2773,8.3711,8.4804,8.6094,8.664,8.707,8.7461,8.75,8.75,8.75,8.75,8.75,8.75,8.8281,8.9101,9.0,9.0469,9.1133,9.1992,9.2422,9.2617,9.2617,9.2617,9.2617,9.2617,0.0,9.2851,9.3359,9.4258,9.5117,9.5976,9.6836,9.7383,9.7695,9.7695,9.7695,9.7695,9.7695,9.7422,9.6992,9.6601,9.5859,9.4961,9.414,9.3554,9.3125,9.2695,9.2617,9.2617,9.2617,9.2617,9.2617,9.2617,9.2617,9.2617,9.2617,9.2617,9.2617,9.2617,9.2617,9.2617,9.2617,9.2617,9.2617,9.2617,9.3359,9.4062,9.4531,9.6094,9.75,9.8437,9.9258,9.9531,9.914,9.9023,9.9179,9.957,10.0117,10.039,10.0312,9.9922,9.9492,9.9023,9.8594,9.8164,9.7695,9.7695,9.7695,9.7695,9.7695,9.7695,5.168,5.4531,5.7617,5.9336,6.1094,6.2773,6.4258,6.4453,6.4453,6.5078,6.5742,6.6523,6.7578,6.9883,7.3125,7.7734,7.8672,7.9375,8.1054,8.1484,8.1914,8.2812,8.4258,8.5547,8.6406,8.7109,8.75,8.75,8.75,8.75,8.75,8.75,8.7578,8.7773,8.8594,8.9414,9.0312,9.1172,9.1953,9.2617,9.2617,9.2617,9.2617,9.2617,9.2617,9.2617,9.2617,9.3086,9.3984,9.4844,9.5703,9.6562,9.7383,9.7695,9.7695,9.7695,9.7695,9.7695,9.7695,9.7187,9.6484,9.625,9.5156,9.3867,9.3672,9.3125,9.2617,9.2617,9.2617,9.2617,9.2617,9.2617,9.2617,9.2617,9.2617,9.2617,9.2617,9.2617,9.2617,9.2617,9.2617,9.2617,9.2617,9.2929,9.3125,9.2929,9.3984,9.4961,9.5429,9.7148,9.8828,10.0195,10.0703,10.0781,10.0586,10.0,9.9609,9.9609,10.0898,10.1406,10.0898,10.0703,10.0195,9.9336,9.9101,9.8554,9.7695,9.7695,9.7695,9.7695,9.7695,9.7695,5.3164,5.6367,5.9414,6.1094,6.1055,6.1445,6.4765,6.4883,6.5,6.7422,6.7969,6.8515,7.0117,7.2578,7.5234,7.8047,7.914,8.0234,8.1953,8.289,8.375,8.4609,8.5547,8.6445,8.7304,8.7461,8.75,8.75,8.75,8.75,8.75,8.75,8.7851,8.8594,8.9453,9.0312,9.1211,9.207,9.2539,9.2617,9.2617,9.2617,9.2617,9.2617,9.2617,9.2617,9.2617,9.3086,9.3984,9.4844,9.5703,9.6562,9.7383,9.7695,9.7695,9.7695,9.7695,9.7695,9.7695,9.7187,9.6367,9.5547,9.4648,9.375,9.2929,9.2656,9.2617,9.2617,9.2617,9.2617,9.2617,9.2617,9.2617,9.2617,9.2617,9.2617,9.2617,9.2617,9.2617,9.2617,9.2617,9.2617,9.2617,9.3945,9.4726,9.3945,9.5859,9.7187,9.6484,9.8594,10.0195,10.0312,10.1719,10.2383,10.1601,10.1406,10.1406,10.1406,10.1484,10.1914,10.2695,10.1914,10.1094,10.0195,9.9414,9.8554,9.7695,9.7695,9.7695,9.7695,9.7695,9.7695,5.4258,5.7734,6.1055,6.2226,6.3086,6.4101,6.5976,6.6992,6.7812,6.8789,7.0273,7.1914,7.3633,7.6484,7.8711,7.918,8.039,8.1562,8.2226,8.3047,8.3906,8.4804,8.5664,8.6523,8.7422,8.75,8.75,8.75,8.75,8.75,8.75,8.7969,8.8398,8.8672,9.0078,9.0976,9.1289,9.2148,9.2617,9.2617,9.2617,9.2617,9.2617,9.2617,9.2617,9.2617,9.3164,9.3906,9.4765,9.5664,9.6484,9.7265,9.7578,9.7695,9.7695,9.7695,9.7695,9.7617,9.7148,9.6406,9.5547,9.4687,9.3789,9.3047,9.2695,9.2617,9.2617,9.2617,9.2617,9.2617,9.2617,9.2617,9.2617,9.2617,9.2617,9.2617,9.2617,9.2617,9.2617,9.2617,9.2617,9.2773,9.332,9.4414,9.5078,9.4765,9.6875,9.8203,9.7344,9.9492,10.1094,10.1094,10.1719,10.1719,10.0898,10.1289,10.1601,10.1601,10.2109,10.2617,10.289,10.2617,10.1719,10.0312,9.9961,9.9101,9.7695,9.7695,9.7695,9.7695,9.7695,9.8008,5.5976,5.9258,6.2383,6.3515,6.4922,6.6367,6.7773,6.9258,7.0586,7.1719,7.332,7.5078,7.6797,7.8789,8.0195,8.0117,8.1328,8.2383,8.2656,8.3476,8.4336,8.5195,8.6094,8.6836,8.7422,8.75,8.75,8.75,8.75,8.75,8.75,8.8242,8.8828,8.9101,9.0547,9.1445,9.1719,9.2304,9.2617,9.2617,9.2617,9.2617,9.2617,9.2617,9.2617,9.2656,9.3515,9.4375,9.5273,9.6133,9.6953,9.7695,9.7695,9.7695,9.7695,9.7695,9.7539,9.7226,9.6679,9.5742,9.4687,9.4101,9.332,9.2617,9.2617,9.2617,9.2617,9.2617,9.2617,9.2617,9.2617,9.2617,9.2617,9.2617,9.2617,9.2617,9.2617,9.2617,9.2617,9.2617,9.2812,9.3203,9.3789,9.5273,9.6328,9.6015,9.8164,9.9492,9.8633,10.0312,10.1719,10.1992,10.1992,10.1797,10.1211,10.1719,10.1992,10.1992,10.2617,10.289,10.289,10.289,10.2109,10.0312,10.0312,9.957,9.8125,9.8125,9.8242,9.8515,9.8515,9.8828,5.8476,6.1055,6.3437,6.5195,6.6289,6.7617,7.0156,7.1406,7.3008,7.6523,7.7226,7.7734,7.9414,7.9062,7.9062,8.0742,8.1719,8.2617,8.3476,8.4336,8.5234,8.6094,8.6953,8.75,8.75,8.75,8.75,8.75,8.75,8.75,8.75,8.8281,8.9101,8.9961,9.0859,9.1719,9.2578,9.2617,9.2617,9.2617,9.2617,9.2617,9.2617,9.2617,9.2617,9.2656,9.3515,9.4414,9.5273,9.6133,9.6992,9.7695,9.7695,9.7695,9.7695,9.7695,9.7187,9.6484,9.6484,9.5351,9.3906,9.3906,9.3281,9.2617,9.2617,9.2617,9.2617,9.2617,9.2617,9.2617,9.2617,9.2617,9.2617,9.2617,9.2617,9.2617,9.2617,9.2617,9.2617,9.2617,9.332,9.3906,9.3906,9.6758,9.8711,9.7851,9.9922,10.1289,10.039,10.1094,10.1914,10.2812,10.289,10.289,10.289,10.289,10.289,10.289,10.289,10.289,10.289,10.289,10.2109,10.0312,10.0312,9.9883,9.9023,9.9023,9.9453,10.0312,10.0312,10.0312,5.7734,6.1484,6.5117,6.6211,6.8515,7.1172,7.3789,7.4062,7.4805,7.8242,7.8945,7.9297,8.039,8.0937,8.1133,8.1015,8.1719,8.2617,8.3476,8.4336,8.5234,8.6094,8.6953,8.75,8.75,8.75,8.75,8.75,8.75,8.7734,8.832,8.914,9.0,9.0898,9.1758,9.2344,9.2617,9.2617,9.2617,9.2617,9.2617,9.2617,9.2617,9.2617,9.2929,9.3554,9.4453,9.5312,9.6172,9.6992,9.7461,9.7695,9.7695,9.7695,9.7695,9.7695,9.7187,9.6406,9.5781,9.4844,9.3789,9.3164,9.2812,9.2617,9.2617,9.2617,9.2617,9.2617,9.2617,9.2617,9.2617,9.2617,9.2617,9.2617,9.2617,9.2617,9.2617,9.2617,9.2773,9.3398,9.3711,9.4297,9.5508,9.7539,9.8906,9.8633,10.0781,10.2383,10.2187,10.2383,10.2617,10.289,10.289,10.289,10.289,10.289,10.289,10.289,10.289,10.289,10.289,10.289,10.2383,10.1211,10.1211,10.0781,9.9922,9.9922,10.0,10.0312,10.0312,10.0586,5.9883,6.3711,6.7305,6.8203,7.0234,7.2851,7.6172,7.7031,7.7812,8.0234,8.0469,8.0469,8.1367,8.164,8.1719,8.1562,8.1953,8.2734,8.3945,8.457,8.5351,8.6562,8.7187,8.75,8.75,8.75,8.75,8.75,8.7812,8.8203,8.8672,8.9844,9.0742,9.1289,9.2148,9.2617,9.2617,9.2617,9.2617,9.2617,9.2617,9.2617,9.2617,9.2617,9.3086,9.3984,9.5195,9.6211,9.6992,9.75,9.7695,9.7695,9.7695,9.7695,9.7695,9.7695,9.6953,9.5898,9.539,9.4414,9.3281,9.2773,9.2617,9.2617,9.2617,9.2617,9.2617,9.2617,9.2617,9.2617,9.2617,9.2617,9.2617,9.2617,9.2617,9.2617,9.2617,9.2851,9.3281,9.3789,9.4453,9.5351,9.6758,9.8398,9.9648,9.9961,10.1719,10.289,10.289,10.289,10.289,10.289,10.289,10.289,10.289,10.289,10.289,10.289,10.289,10.289,10.289,10.289,10.25,10.1601,10.1601,10.1289,10.0781,10.0781,10.1015,10.1289,10.1289,10.1601,6.3281,6.6601,6.9609,7.0469,7.1719,7.375,7.7812,7.9961,8.1328,8.2031,8.1601,8.1367,8.2148,8.164,8.1367,8.2187,8.2383,8.3008,8.4687,8.4961,8.5625,8.7304,8.75,8.75,8.75,8.75,8.75,8.75,8.8242,8.8711,8.8828,9.039,9.1328,9.1406,9.2187,9.2617,9.2617,9.2617,9.2617,9.2617,9.2617,9.2617,9.2617,9.2695,9.3242,9.4219,9.5898,9.7031,9.7695,9.7695,9.7695,9.7695,9.7695,9.7695,9.7695,9.7617,9.6562,9.5195,9.5117,9.3984,9.2617,9.2617,9.2617,9.2617,9.2617,9.2617,9.2617,9.2617,9.2617,9.2617,9.2617,9.2617,9.2617,9.2617,9.2656,9.2734,9.2734,9.3476,9.414,9.4219,9.5586,9.6992,9.7812,9.9336,10.0703,10.1601,10.2383,10.289,10.289,10.289,10.289,10.289,10.289,10.289,10.289,10.289,10.289,10.289,10.289,10.289,10.289,10.289,10.25,10.1719,10.1719,10.1719,10.1719,10.1719,10.2109,10.289,10.289,10.289,6.0898,6.5234,6.9609,7.0469,7.4414,7.8476,8.0078,8.1289,8.1875,8.1367,8.1679,8.207,8.2265,8.2148,8.207,8.2265,8.2851,8.3672,8.4765,8.5508,8.6328,8.7383,8.75,8.75,8.75,8.75,8.75,8.75,8.8242,8.8984,8.9687,9.0703,9.1601,9.2304,9.25,9.2617,9.2617,9.2617,9.2617,9.2617,9.2617,9.2617,9.2617,9.332,9.4453,9.6015,9.6992,9.7539,9.7695,9.7695,9.7695,9.7695,9.7695,9.7695,9.7617,9.6992,9.6094,9.5117,9.4414,9.3476,9.2617,9.2617,9.2617,9.2617,9.2617,9.2617,9.2617,9.2617,9.2617,9.2617,9.2617,9.2617,9.2617,9.2617,9.3125,9.3633,9.3633,9.4844,9.6133,9.6758,9.7734,9.8711,9.9609,10.0586,10.1601,10.25,10.2812,10.289,10.289,10.289,10.289,10.289,10.289,10.289,10.289,10.289,10.289,10.289,10.289,10.289,10.289,10.289,10.2812,10.2617,10.2617,10.2617,10.2617,10.2617,10.2695,10.289,10.289,10.289,6.1484,6.5469,6.9414,7.1953,7.6172,7.9805,8.0273,8.1367,8.2187,8.1719,8.1992,8.2304,8.2304,8.2304,8.2304,8.2304,8.3047,8.3906,8.4765,8.5664,8.6523,8.7383,8.75,8.75,8.75,8.75,8.7656,8.8047,8.8867,8.9687,9.0586,9.1445,9.2148,9.2578,9.2617,9.2617,9.2617,9.2617,9.2617,9.2617,9.2617,9.3047,9.3867,9.4336,9.5234,9.6523,9.7344,9.7695,9.7695,9.7695,9.7695,9.7695,9.7695,9.7461,9.707,9.664,9.5664,9.4492,9.4062,9.332,9.2617,9.2617,9.2617,9.2617,9.2617,9.2617,9.2617,9.2617,9.2617,9.2617,9.2617,9.2617,9.2617,9.2617,9.2969,9.3398,9.3828,9.4922,9.6133,9.6953,9.8125,9.9297,10.0117,10.1406,10.2383,10.2812,10.289,10.289,10.289,10.289,10.289,10.289,10.289,10.289,10.289,10.289,10.289,10.289,10.289,10.289,10.289,10.289,10.289,10.289,10.289,10.289,10.289,10.289,10.289,10.289,10.289,10.289,6.2344,6.6094,6.9648,7.3789,7.7187,7.957,7.9844,8.1172,8.2304,8.2304,8.2304,8.2304,8.2304,8.2304,8.2344,8.25,8.3242,8.414,8.5,8.5859,8.6679,8.7422,8.75,8.75,8.75,8.75,8.7812,8.8633,8.9492,9.039,9.125,9.2148,9.2617,9.2617,9.2617,9.2617,9.2617,9.2617,9.2617,9.2617,9.2734,9.3672,9.5195,9.5351,9.5898,9.6758,9.7422,9.7695,9.7695,9.7695,9.7695,9.7695,9.7695,9.7226,9.6484,9.6328,9.5273,9.3867,9.3711,9.3203,9.2617,9.2617,9.2617,9.2617,9.2617,9.2617,9.2617,9.2617,9.2617,9.2617,9.2617,9.2617,9.2656,9.2773,9.2812,9.3047,9.3945,9.5156,9.6289,9.7031,9.8515,9.9883,10.0586,10.1914,10.289,10.289,10.289,10.289,10.289,10.289,10.289,10.289,10.289,10.289,10.289,10.289,10.289,10.289,10.289,10.289,10.289,10.289,10.289,10.289,10.289,10.289,10.289,10.289,10.289,10.289,10.289,10.289,6.0117,6.5547,7.1211,7.4844,7.7226,7.9023,8.0508,8.1601,8.2304,8.2304,8.2304,8.2304,8.2304,8.2304,8.2539,8.3281,8.414,8.5039,8.5898,8.6797,8.7383,8.75,8.75,8.75,8.75,8.75,8.7812,8.8633,8.9492,9.039,9.125,9.2148,9.2617,9.2617,9.2617,9.2617,9.2617,9.2617,9.2617,9.2617,9.3359,9.4258,9.5234,9.5976,9.6758,9.7539,9.7656,9.7695,9.7695,9.7695,9.7695,9.7695,9.7695,9.7226,9.6406,9.5664,9.4765,9.3789,9.3047,9.2695,9.2617,9.2617,9.2617,9.2617,9.2617,9.2617,9.2617,9.2617,9.2617,9.2617,9.2617,9.2617,9.2773,9.3554,9.3711,9.3984,9.4844,9.7461,9.9648,9.9765,10.1211,10.2383,10.25,10.2695,10.289,10.289,10.289,10.289,10.289,10.289,10.289,10.289,10.289,10.289,10.289,10.289,10.289,10.289,10.289,10.289,10.289,10.289,10.289,10.289,10.289,10.289,10.289,10.289,10.289,10.289,10.289,10.289,6.0234,6.6172,7.1406,7.4414,7.6836,7.8828,8.0,8.0937,8.1719,8.2187,8.2304,8.2304,8.2304,8.2304,8.2578,8.3476,8.4336,8.5195,8.6094,8.6953,8.75,8.75,8.75,8.75,8.75,8.789,8.8515,8.9375,9.0234,9.1094,9.1992,9.2383,9.2617,9.2617,9.2617,9.2617,9.2617,9.2617,9.2851,9.3359,9.4219,9.5078,9.5976,9.6797,9.7383,9.7695,9.7695,9.7695,9.7695,9.7695,9.7695,9.7656,9.7187,9.6523,9.5664,9.4804,9.3906,9.3125,9.2734,9.2617,9.2617,9.2617,9.2617,9.2617,9.2617,9.2617,9.2617,9.2617,9.2617,9.2617,9.2617,9.2617,9.2695,9.3086,9.4297,9.5469,9.5859,9.7109,9.8594,10.0,10.1289,10.2304,10.2812,10.289,10.289,10.289,10.289,10.289,10.289,10.289,10.289,10.289,10.289,10.289,10.289,10.289,10.289,10.289,10.289,10.289,10.289,10.289,10.289,10.289,10.289,10.289,10.289,10.289,10.289,10.289,10.289,10.289,6.0351,6.5625,6.9844,7.3125,7.5586,7.7578,7.9062,8.0234,8.1172,8.1836,8.2148,8.2304,8.2304,8.2461,8.2929,8.3789,8.4648,8.5547,8.6406,8.7109,8.75,8.75,8.75,8.75,8.75,8.8242,8.9062,8.9922,9.082,9.1679,9.2539,9.2617,9.2617,9.2617,9.2617,9.2617,9.2617,9.2617,9.3047,9.3906,9.4765,9.5664,9.6523,9.7344,9.7695,9.7695,9.7695,9.7695,9.7695,9.7695,9.7695,9.7617,9.6797,9.5976,9.5078,9.4219,9.3359,9.2617,9.2617,9.2617,9.2617,9.2617,9.2617,9.2617,9.2617,9.2617,9.2617,9.2617,9.2617,9.2617,9.2617,9.2773,9.3008,9.3203,9.5078,9.6992,9.7656,9.7812,9.8437,10.0508,10.1484,10.2109,10.2812,10.289,10.289,10.289,10.289,10.289,10.289,10.289,10.289,10.289,10.289,10.289,10.289,10.289,10.289,10.289,10.289,10.289,10.289,10.289,10.289,10.289,10.289,10.289,10.289,10.289,10.289,10.289,10.289,10.289,5.9531,6.2539,6.5859,7.0898,7.2851,7.4453,7.7812,7.9844,8.1015,8.1054,8.1719,8.2304,8.2304,8.2969,8.3828,8.4687,8.5547,8.6445,8.7304,8.7461,8.75,8.75,8.75,8.75,8.75,8.8242,8.9062,8.9922,9.082,9.1679,9.2539,9.2617,9.2617,9.2617,9.2617,9.2617,9.2617,9.2617,9.3047,9.3906,9.4765,9.5664,9.6523,9.7344,9.7695,9.7695,9.7695,9.7695,9.7695,9.7695,9.7695,9.7617,9.6797,9.5976,9.5078,9.4219,9.3359,9.2617,9.2617,9.2617,9.2617,9.2617,9.2617,9.2617,9.2617,9.2617,9.2617,9.2617,9.2617,9.2617,9.2617,9.3203,9.4023,9.4883,9.6367,9.832,10.0781,10.1289,10.1601,10.2617,10.2812,10.2812,10.289,10.289,10.289,10.289,10.289,10.289,10.289,10.289,10.289,10.289,10.289,10.289,10.289,10.289,10.289,10.289,10.289,10.289,10.289,10.289,10.289,10.289,10.289,10.289,10.289,10.289,10.289,10.289,10.289,10.289,5.7695,6.1094,6.4453,6.8555,7.1875,7.4453,7.5703,7.8164,8.0312,8.0898,8.1679,8.2304,8.2304,8.3008,8.3906,8.4765,8.5625,8.6484,8.7383,8.75,8.75,8.75,8.75,8.75,8.75,8.8711,8.9648,8.9961,9.1328,9.2265,9.2578,9.2617,9.2617,9.2617,9.2617,9.2617,9.2617,9.3164,9.3867,9.4726,9.5625,9.6484,9.7265,9.7578,9.7695,9.7695,9.7695,9.7695,9.7695,9.7695,9.7383,9.6836,9.6015,9.5117,9.4258,9.3398,9.2851,9.2617,9.2617,9.2617,9.2617,9.2617,9.2617,9.2617,9.2617,9.2617,9.2617,9.2617,9.2617,9.2617,9.2617,9.2812,9.3554,9.5547,9.6875,9.8437,10.1015,10.1992,10.2383,10.2109,10.25,10.289,10.289,10.289,10.289,10.289,10.289,10.289,10.289,10.289,10.289,10.289,10.289,10.289,10.289,10.289,10.289,10.289,10.289,10.289,10.289,10.289,10.289,10.289,10.289,10.289,10.289,10.289,10.289,10.289,10.289,10.289,5.6445,5.9531,6.2617,6.6406,6.9922,7.2734,7.3906,7.6367,7.8828,8.0273,8.125,8.1953,8.2265,8.3008,8.3906,8.4765,8.5898,8.6836,8.7422,8.75,8.75,8.75,8.75,8.75,8.75,8.9023,9.0,9.0,9.1601,9.2617,9.2617,9.2617,9.2617,9.2617,9.2617,9.2617,9.2617,9.3476,9.4336,9.5195,9.6094,9.6914,9.7695,9.7695,9.7695,9.7695,9.7695,9.7695,9.7695,9.7422,9.6992,9.6367,9.5234,9.4414,9.3789,9.2929,9.2617,9.2617,9.2617,9.2617,9.2617,9.2617,9.2617,9.2617,9.2617,9.2617,9.2617,9.2617,9.2617,9.2617,9.2617,9.3047,9.4062,9.6367,9.7773,9.914,10.1211,10.2109,10.2383,10.2109,10.25,10.289,10.289,10.289,10.289,10.289,10.289,10.289,10.289,10.289,10.289,10.289,10.289,10.289,10.289,10.289,10.289,10.289,10.289,10.289,10.289,10.289,10.289,10.289,10.289,10.289,10.289,10.289,10.289,10.289,10.289,10.289,0.0,0.0,0.0,6.4453,6.6875,6.9101,7.2422,7.4609,7.664,7.9101,8.0351,8.125,8.2148,8.3008,8.3867,8.4726,8.6328,8.7461,8.7461,8.7461,8.75,8.75,8.75,8.75,8.75,8.9023,9.0,9.0,9.1601,9.2617,9.2617,9.2617,9.2617,9.2617,9.2617,9.2617,9.2617,9.3476,9.4375,9.5195,9.6094,9.6953,9.7695,9.7695,9.7695,9.7695,9.7695,9.7695,9.7656,9.6836,9.6484,9.6289,9.457,9.3867,9.375,9.289,9.2617,9.2617,9.2617,9.2617,9.2617,9.2617,9.2617,9.2617,9.2617,9.2617,9.2617,9.2617,9.2617,9.2617,9.2617,9.3906,9.5625,9.7226,9.8945,10.0508,10.1406,10.1601,10.1797,10.2695,10.289,10.289,10.289,10.289,10.289,10.289,10.289,10.289,10.289,10.289,10.289,10.289,10.289,10.289,10.289,10.289,10.289,10.289,10.289,10.289,10.289,10.289,10.289,10.289,10.289,10.289,10.289,10.289,10.289,10.289,10.289,10.289,5.418,0.0,0.0,0.0,0.0,0.0,7.0312,7.3828,7.7031,7.7734,7.9062,8.0508,8.2031,8.25,8.2929,8.3828,8.5429,8.6562,8.6562,8.7109,8.75,8.75,8.75,8.75,8.75,8.9023,9.0,0.0,9.1601,9.2617,9.2617,9.2617,9.2617,9.2617,9.2617,9.2617,9.2617,9.4101,9.4961,9.5234,9.6679,9.7461,9.7695,9.7695,9.7695,9.7695,9.7695,9.7695,9.7656,9.6836,9.6133,9.5469,9.4336,9.3515,9.2929,9.2695,9.2617,9.2617,9.2617,9.2617,9.2617,9.2617,9.2617,9.2617,9.2617,9.2617,9.2617,9.2617,9.2617,9.2617,9.2617,9.3906,9.5312,9.5781,9.7187,9.8828,10.0312,10.0703,10.1094,10.2617,10.289,10.289,10.289,10.289,10.289,10.289,10.289,10.289,10.289,10.289,10.289,10.289,10.289,10.289,10.289,10.289,10.289,10.289,10.289,10.289,10.289,10.289,10.289,10.289,10.289,10.289,10.289,10.289,10.289,10.289,10.289,10.289,5.4726,5.6445,5.8633,6.168,0.0,0.0,6.9489,7.2223,7.5035,7.7184,7.8086,7.918,8.1367,8.1445,8.1601,8.2851,8.3906,8.4844,8.5547,8.6406,8.6953,8.6953,8.7265,8.75,8.75,8.8672,8.9609,8.9961,9.1289,9.2226,9.2578,9.2617,9.2617,9.2617,9.2617,9.2773,9.3125,9.4492,9.539,9.5742,9.707,9.7695,9.7695,9.7695,9.7695,9.7695,9.7695,9.7695,9.7617,9.6445,9.5664,9.5078,9.3828,9.3047,9.2617,9.2617,9.2617,9.2617,9.2617,9.2617,9.2617,9.2617,9.2617,9.2617,9.2617,9.2617,9.2617,9.2617,9.2617,9.2617,9.2617,9.414,9.5664,9.5273,9.7031,9.8945,9.9609,10.0312,10.1289,10.2617,10.289,10.289,10.289,10.289,10.289,10.289,10.289,10.289,10.289,10.289,10.289,10.289,10.289,10.289,10.289,10.289,10.289,10.289,10.289,10.289,10.289,10.289,10.289,10.289,10.289,10.289,10.289,10.289,10.289,10.289,10.289,10.289,5.6484,5.7305,5.8672,6.1211,6.3164,0.0,6.9275,7.0348,7.1827,7.6425,7.6833,7.7187,7.9922,7.9726,7.9765,8.1719,8.1992,8.2656,8.4492,8.5508,8.6054,8.6054,8.6758,8.7265,8.7344,8.8086,8.8945,8.9804,9.0742,9.1679,9.2539,9.2617,9.2617,9.2617,9.2617,9.3008,9.3906,9.4765,9.5625,9.6523,9.7304,9.7695,9.7695,9.7695,9.7695,9.7695,9.7695,9.7656,9.7422,9.5859,9.5195,9.5039,9.3281,9.2617,9.2617,9.2617,9.2617,9.2617,9.2617,9.2617,9.2617,9.2617,9.2617,9.2617,9.2617,9.2617,9.2617,9.2617,9.2617,9.2617,9.2617,9.4453,9.6172,9.539,9.7656,9.9844,9.9258,10.0312,10.1601,10.2695,10.289,10.289,10.289,10.289,10.289,10.289,10.289,10.289,10.289,10.289,10.289,10.289,10.289,10.289,10.289,10.289,10.289,10.289,10.289,10.289,10.289,10.289,10.289,10.289,10.289,10.289,10.289,10.289,10.289,10.289,10.2812,10.2812,5.7109,5.7734,5.957,6.2109,6.4062,0.0,6.8127,6.9688,7.0948,7.1982,7.2578,7.375,7.6406,7.6172,7.6601,7.9687,8.0195,8.1054,8.3515,8.4609,8.5156,8.5156,8.5312,8.5664,8.6406,8.7226,8.8086,8.8906,9.039,9.1679,9.2539,9.2617,9.2617,9.2617,9.2617,9.3008,9.3906,9.4765,9.5625,9.6523,9.7304,9.7695,9.7695,9.7695,9.7695,9.7695,9.7695,9.7344,9.664,9.5625,9.5195,9.5039,9.3281,9.2617,9.2617,9.2617,9.2617,9.2617,9.2617,9.2617,9.2617,9.2617,9.2617,9.2617,9.2617,9.2617,9.2617,9.2617,9.2617,9.2617,9.2617,9.4023,9.539,9.5234,9.6758,9.8554,9.9765,9.9765,10.0195,10.25,10.289,10.289,10.289,10.289,10.289,10.289,10.289,10.289,10.289,10.289,10.289,10.289,10.289,10.289,10.289,10.289,10.289,10.289,10.289,10.289,10.289,10.289,10.289,10.289,10.289,10.289,10.289,10.289,10.289,10.289,10.2187,10.1914,5.9053,5.9048,6.0113,6.2352,6.3566,0.0,0.0,6.8953,6.9666,7.094,7.1531,7.2568,7.4839,7.4883,7.5469,7.8047,7.8437,7.9062,8.082,8.289,8.4414,8.4844,8.4883,8.5078,8.5508,8.5937,8.6719,8.8008,8.9687,9.1015,9.1914,9.1953,9.2148,9.2578,9.2617,9.3242,9.4531,9.4961,9.5859,9.7109,9.75,9.7695,9.7695,9.7695,9.7695,9.7695,9.7695,9.7226,9.6445,9.5547,9.4922,9.4414,9.3125,9.2617,9.2617,9.2617,9.2617,9.2617,9.2617,9.2617,9.2617,9.2617,9.2617,9.2617,9.2617,9.2617,9.2617,9.2617,9.2617,9.2617,9.2617,9.4219,9.5742,9.5312,9.6797,9.8476,9.8906,9.8984,9.9375,10.0703,10.1719,10.2383,10.2812,10.289,10.289,10.289,10.289,10.289,10.289,10.289,10.289,10.289,10.289,10.289,10.289,10.289,10.289,10.289,10.289,10.289,10.289,10.289,10.289,10.289,10.289,10.289,10.289,10.289,10.2695,10.2187,10.1406,10.1015,6.1136,6.0621,6.107,6.2413,6.2983,6.4146,0.0,0.0,0.0,7.031,7.0722,7.1275,7.3036,7.3476,7.4062,7.5508,7.6133,7.6758,7.7617,8.039,8.2812,8.4023,8.4453,8.4648,8.4648,8.5234,8.6133,8.7422,8.9219,9.0547,9.125,9.1289,9.1719,9.2578,9.2617,9.3437,9.5195,9.5195,9.6054,9.7695,9.7695,9.7695,9.7695,9.7695,9.7695,9.7695,9.7695,9.7148,9.6211,9.5508,9.4609,9.3594,9.2851,9.2617,9.2617,9.2617,9.2617,9.2617,9.2617,9.2617,9.2617,9.2617,9.2617,9.2617,9.2617,9.2617,9.2617,9.2617,9.2617,9.2617,9.2617,9.4414,9.6054,9.5351,9.7031,9.8594,9.8086,9.8359,9.8867,9.9179,10.039,10.1601,10.25,10.2812,10.289,10.289,10.289,10.289,10.289,10.289,10.289,10.289,10.289,10.289,10.289,10.289,10.289,10.289,10.289,10.289,10.289,10.289,10.289,10.289,10.289,10.289,10.289,10.2695,10.2304,10.1601,10.0703,10.0195,6.22,6.2194,6.3245,6.2667,6.37,6.5157,6.6415,0.0,6.6683,6.7117,0.0,6.7529,6.8711,0.0,0.0,7.0312,7.2265,7.4062,7.4922,7.6719,7.8789,8.1172,8.2812,8.375,8.375,8.6484,8.8047,8.7539,8.9765,9.1211,9.1289,9.1289,9.1719,9.2578,9.2617,9.3437,9.5195,9.5195,9.6054,9.7695,9.7695,9.7695,9.7695,9.7695,9.7695,9.7695,9.7695,9.6797,9.5351,9.5234,9.4219,9.2734,9.2656,9.2617,9.2617,9.2617,9.2617,9.2617,9.2617,9.2617,9.2617,9.2617,9.2617,9.2617,9.2617,9.2617,9.2617,9.2617,9.2617,9.2617,9.2617,9.3984,9.5312,9.5234,9.6562,9.8047,9.8711,9.832,9.8281,9.9844,10.0312,10.0703,10.1601,10.2383,10.289,10.289,10.289,10.289,10.289,10.289,10.289,10.289,10.289,10.289,10.289,10.289,10.289,10.289,10.289,10.289,10.289,10.289,10.289,10.289,10.289,10.289,10.289,10.2109,10.1719,10.1601,10.0703,9.9883,6.6525,6.6144,6.6432,6.5538,6.559,6.6035,6.6822,6.6747,6.6535,6.6586,0.0,0.0,0.0,0.0,0.0,0.0,7.0781,7.1914,7.2305,7.4258,7.6992,8.0586,8.164,0.0,8.2812,8.5508,8.6914,8.6054,8.8359,8.9804,8.9804,9.0273,9.0937,9.1836,9.2344,9.3437,9.5195,9.5195,9.6054,9.7695,9.7695,9.7695,9.7695,9.7695,9.7695,9.7695,9.7695,9.6758,9.5195,9.5195,9.4179,9.2617,9.2617,9.2617,9.2617,9.2617,9.2617,9.2617,9.2617,9.2617,9.2617,9.2617,9.2617,9.2617,9.2617,9.2617,9.2617,9.2617,9.2617,9.2734,9.3203,9.4258,9.5312,9.582,9.6836,9.7812,9.8164,9.7969,9.7929,9.8633,9.9219,9.9648,10.0,10.1719,10.2695,10.2187,10.2617,10.289,10.289,10.289,10.289,10.289,10.289,10.289,10.289,10.289,10.289,10.289,10.289,10.289,10.289,10.289,10.289,10.289,10.289,10.289,10.289,10.25,10.2109,10.1601,10.0195,9.9336,7.0206,6.9463,6.9155,6.8256,6.7667,6.7372,6.7654,6.7423,6.7039,6.6692,6.7208,0.0,0.0,0.0,6.8906,6.8203,0.0,6.9844,6.9375,7.1523,7.4687,7.875,7.9883,8.0742,0.0,0.0,0.0,8.4648,8.7578,8.9101,8.8398,8.9414,9.039,9.1289,9.2148,9.3437,9.5195,9.5195,9.6054,9.7695,9.7695,9.7695,9.7695,9.7695,9.7695,9.7695,9.7461,9.6562,9.5195,9.4922,9.3945,9.2617,9.2617,9.2617,9.2617,9.2617,9.2617,9.2617,9.2617,9.2617,9.2617,9.2617,9.2617,9.2617,9.2617,9.2617,9.2617,9.2617,9.2617,9.2812,9.3672,9.4531,9.5429,9.6289,9.7109,9.7695,9.7695,9.7695,9.7695,9.7695,9.8398,9.8906,9.8672,10.0586,10.2109,10.1719,10.2109,10.2617,10.289,10.289,10.289,10.289,10.289,10.289,10.289,10.289,10.289,10.289,10.289,10.289,10.289,10.289,10.289,10.289,10.289,10.289,10.289,10.289,10.25,10.1601,10.0312,9.9453,7.1871,7.1129,7.0875,6.986,6.9629,6.9398,6.8744,6.8525,6.8167,6.6885,6.664,6.6709,6.6898,6.7656,6.7422,6.4883,6.6601,0.0,0.0,6.7969,7.0859,7.4375,7.7031,7.9219,0.0,8.4922,8.6406,0.0,8.8359,9.0156,8.7656,8.9101,9.039,9.1289,9.2148,9.3437,9.5195,9.5195,9.6054,9.7695,9.7695,9.7695,9.7695,9.7695,9.7695,9.7656,9.6875,9.6015,9.5117,9.4297,9.3398,9.2617,9.2617,9.2617,9.2617,9.2617,9.2617,9.2617,9.2617,9.2617,9.2617,9.2617,9.2617,9.2617,9.2617,9.2617,9.2617,9.2617,9.2617,9.2812,9.3672,9.4531,9.5429,9.6289,9.7109,9.7695,9.7695,9.7695,9.7695,9.7695,9.8398,9.8711,9.789,9.9219,10.0703,10.1484,10.1601,10.1914,10.2812,10.289,10.289,10.289,10.289,10.289,10.289,10.289,10.289,10.289,10.289,10.289,10.289,10.289,10.289,10.289,10.289,10.289,10.289,10.289,10.25,10.1601,10.1484,10.0586,0.0,0.0,7.5418,7.3829,7.3955,7.3899,7.1678,7.1376,7.1053,6.9341,6.828,6.7663,6.7733,6.7539,6.7031,6.6172,6.6758,6.6914,0.0,6.6836,6.8594,7.0898,7.4492,7.7461,7.918,8.2734,0.0,8.3672,8.6836,8.8164,8.6719,8.8242,8.9531,9.039,9.1836,9.3437,9.5195,9.5195,9.6054,9.7695,9.7695,9.7695,9.7695,9.7695,9.7422,9.6875,9.6601,9.5664,9.4336,9.4023,9.3398,9.2617,9.2617,9.2617,9.2617,9.2617,9.2617,9.2617,9.2617,9.2617,9.2617,9.2617,9.2617,9.2617,9.2617,9.2617,9.2617,9.2617,9.2617,9.2812,9.3672,9.4531,9.5429,9.6289,9.7109,9.7695,9.7695,9.7695,9.7695,9.7695,9.7929,9.8047,9.7734,9.8672,9.9726,10.0586,10.0703,10.1289,10.2695,10.2383,10.2304,10.2812,10.289,10.289,10.289,10.289,10.289,10.289,10.289,10.289,10.289,10.289,10.289,10.289,10.289,10.2617,10.1992,10.1992,10.1601,10.0703,10.0703,10.039,7.9,7.8709,0.0,7.703,7.7195,7.706,7.461,7.4522,7.4324,7.2217,7.0565,6.9726,7.0351,6.8789,6.7578,6.8164,6.75,6.6719,0.0,6.6562,6.7305,6.8398,7.1797,7.4961,7.7344,8.0937,8.3281,8.3594,8.6289,8.7422,8.625,8.7539,8.8789,8.9961,9.1406,9.2969,9.4726,9.5039,9.5898,9.7265,9.7578,9.7695,9.7695,9.7695,9.7265,9.6484,9.6172,9.5234,9.3867,9.3554,9.3125,9.2617,9.2617,9.2617,9.2617,9.2617,9.2617,9.2617,9.2617,9.2617,9.2617,9.2617,9.2617,9.2617,9.2617,9.2617,9.2656,9.2969,9.2851,9.2851,9.4062,9.4765,9.5429,9.6289,9.7109,9.7695,9.7695,9.7695,9.7695,9.7695,9.7695,9.7695,9.7695,9.8164,9.8828,9.9726,10.0117,10.0781,10.2304,10.1914,10.1914,10.2812,10.289,10.289,10.289,10.2617,10.2617,10.289,10.289,10.289,10.289,10.289,10.2812,10.2383,10.2695,10.25,10.1601,10.1914,10.1484,10.0312,10.0586,10.039]},{"header":{"parameterUnit":"m.s-1","parameterCategory":1,"la1":30.6,"la2":29.2853,"lo1":-89.7004,"lo2":-87.6739,"dx":0.0162,"dy":0.0183,"nx":112,"ny":82,"refTime":"2023-01-01T06:00:00:Z","depth":0,"parameterNumber":3,"parameterNumberName":"V-component_of_WINDS"},"data":[0.0,0.0,0.0,0.0,0.0,0.0,0.0,0.0,0.0,0.0,0.0,0.0,0.0,0.0,0.0,0.0,0.0,0.0,0.0,0.0,0.0,0.0,0.0,0.0,0.0,0.0,0.0,0.0,0.0,0.0,0.0,0.0,0.0,0.0,0.0,0.0,0.0,0.0,0.0,0.0,0.0,0.0,0.0,0.0,0.0,0.0,0.0,0.0,0.0,0.0,0.0,0.0,0.0,0.0,0.0,0.0,0.0,0.0,0.0,0.0,0.0,0.0,0.0,0.0,0.0,0.0,0.0,0.0,0.0,0.0,0.0,0.0,0.0,0.0,0.0,0.0,0.0,0.0,0.0,0.0,0.0,0.0,0.0,0.0,0.0,0.0,0.0,0.0,0.0,0.0,-0.8106,-0.8377,-0.8899,-0.9198,-0.9123,-0.9008,-0.8615,-0.7862,0.0,0.0,0.0,0.0,0.0,0.0,0.0,0.0,0.0,0.0,0.0,0.0,0.0,0.0,0.0,0.0,0.0,0.0,0.0,0.0,0.0,0.0,0.0,0.0,0.0,0.0,0.0,0.0,0.0,0.0,0.0,0.0,0.0,0.0,0.0,0.0,0.0,0.0,0.0,0.0,0.0,0.0,0.0,0.0,0.0,0.0,0.0,0.0,0.0,0.0,0.0,0.0,0.0,0.0,0.0,0.0,0.0,0.0,0.0,0.0,0.0,0.0,0.0,0.0,0.0,0.0,0.0,0.0,0.0,0.0,0.0,0.0,0.0,0.0,0.0,0.0,0.0,0.0,0.0,0.0,0.0,0.0,0.0,0.0,0.0,0.0,0.0,0.0,0.0,0.0,0.0,0.0,0.0,0.0,0.0,0.0,0.0,0.0,0.0,0.0,0.0,0.0,0.0,0.0,-0.8147,-0.8933,-0.9334,-0.9388,-0.9001,-0.8954,-0.8615,-0.7862,0.0,0.0,0.0,0.0,0.0,0.0,0.0,0.0,0.0,0.0,0.0,0.0,0.0,0.0,0.0,0.0,0.0,0.0,0.0,0.0,0.0,0.0,0.0,0.0,0.0,0.0,0.0,0.0,0.0,0.0,0.0,0.0,0.0,0.0,0.0,0.0,0.0,0.0,0.0,0.0,0.0,0.0,0.0,0.0,0.0,0.0,0.0,0.0,0.0,0.0,0.0,0.0,0.0,0.0,0.0,0.0,0.0,0.0,0.0,0.0,0.0,0.0,0.0,0.0,0.0,0.0,0.0,0.0,0.0,0.0,0.0,0.0,0.0,0.0,0.0,0.0,0.0,0.0,0.0,0.0,0.0,0.0,0.0,0.0,0.0,0.0,0.0,0.0,0.0,0.0,0.0,0.0,0.0,0.0,0.0,0.0,0.0,0.0,0.0,0.0,0.0,0.0,0.0,-0.8377,-0.8852,-0.9347,-0.9591,-0.9612,-0.9327,-0.9225,-0.8859,-0.8106,-0.7773,0.0,0.0,0.0,0.0,0.0,0.0,0.0,0.0,0.0,0.0,0.0,0.0,0.0,0.0,0.0,0.0,0.0,0.0,0.0,0.0,0.0,0.0,0.0,0.0,0.0,0.0,0.0,0.0,0.0,0.0,0.0,0.0,0.0,0.0,0.0,0.0,0.0,0.0,0.0,0.0,0.0,0.0,0.0,0.0,0.0,0.0,0.0,0.0,0.0,0.0,0.0,0.0,0.0,0.0,0.0,0.0,0.0,0.0,0.0,0.0,0.0,0.0,0.0,0.0,0.0,0.0,0.0,0.0,0.0,0.0,0.0,0.0,0.0,0.0,0.0,0.0,0.0,0.0,0.0,0.0,0.0,0.0,0.0,0.0,0.0,0.0,0.0,0.0,0.0,0.0,0.0,0.0,0.0,0.0,0.0,0.0,0.0,0.0,0.0,0.0,0.0,0.0,-0.9055,-0.9557,-0.9605,-0.9802,-0.9842,-0.9625,-0.9469,-0.9062,-0.8316,-0.795,0.0,0.0,0.0,0.0,0.0,0.0,0.0,0.0,0.0,0.0,0.0,0.0,0.0,0.0,0.0,0.0,0.0,0.0,0.0,0.0,0.0,0.0,0.0,0.0,0.0,0.0,0.0,0.0,0.0,0.0,0.0,0.0,0.0,0.0,0.0,0.0,0.0,0.0,0.0,0.0,0.0,0.0,0.0,0.0,0.0,0.0,0.0,0.0,0.0,0.0,0.0,0.0,0.0,0.0,0.0,0.0,0.0,0.0,0.0,0.0,0.0,0.0,0.0,0.0,0.0,0.0,0.0,0.0,0.0,0.0,0.0,0.0,0.0,0.0,0.0,0.0,0.0,0.0,0.0,0.0,0.0,0.0,0.0,0.0,0.0,0.0,0.0,0.0,0.0,0.0,0.0,0.0,0.0,0.0,0.0,0.0,0.0,0.0,0.0,0.0,0.0,0.0,-0.9205,-0.9903,-0.9639,-0.9992,-1.0073,-0.9646,-0.9469,-0.9062,-0.8316,-0.7855,0.0,0.0,0.0,0.0,0.0,0.0,0.0,0.0,0.0,0.0,0.0,0.0,0.0,0.0,0.0,0.0,0.0,0.0,0.0,0.0,0.0,0.0,0.0,0.0,0.0,0.0,0.0,0.0,0.0,0.0,0.0,0.0,0.0,0.0,0.0,0.0,0.0,0.0,0.0,0.0,0.0,0.0,0.0,0.0,0.0,0.0,0.0,0.0,0.0,0.0,0.0,0.0,0.0,0.0,0.0,0.0,0.0,0.0,0.0,0.0,0.0,0.0,0.0,0.0,0.0,0.0,0.0,0.0,0.0,0.0,0.0,0.0,0.0,0.0,0.0,0.0,0.0,0.0,0.0,0.0,0.0,0.0,0.0,0.0,0.0,0.0,0.0,0.0,0.0,0.0,0.0,0.0,0.0,0.0,0.0,0.0,0.0,0.0,0.0,0.0,0.0,0.0,-0.9334,-0.9971,-0.9761,-1.0066,-1.0175,-0.991,-0.9659,-0.932,-0.8852,0.0,0.0,0.0,0.0,0.0,0.0,0.0,0.0,0.0,0.0,0.0,0.0,0.0,0.0,0.0,0.0,0.0,0.0,0.0,0.0,0.0,0.0,0.0,0.0,0.0,0.0,0.0,0.0,0.0,0.0,0.0,0.0,0.0,0.0,0.0,0.0,0.0,0.0,0.0,0.0,0.0,0.0,0.0,0.0,0.0,0.0,0.0,0.0,0.0,0.0,0.0,0.0,0.0,0.0,0.0,0.0,0.0,0.0,0.0,0.0,0.0,0.0,0.0,0.0,0.0,0.0,0.0,0.0,0.0,0.0,0.0,0.0,0.0,0.0,0.0,0.0,0.0,0.0,0.0,0.0,0.0,0.0,0.0,0.0,0.0,0.0,0.0,0.0,0.0,0.0,0.0,0.0,0.0,0.0,0.0,0.0,0.0,0.0,0.0,0.0,0.0,0.0,-0.8533,-0.9476,-1.0086,-0.9978,-1.0154,-1.0236,-1.0134,-0.9808,-0.9483,-0.9171,0.0,0.0,0.0,0.0,0.0,0.0,0.0,0.0,0.0,0.0,0.0,0.0,0.0,0.0,0.0,0.0,0.0,0.0,0.0,0.0,0.0,0.0,0.0,0.0,0.0,0.0,0.0,0.0,0.0,0.0,0.0,0.0,0.0,0.0,0.0,0.0,0.0,0.0,0.0,0.0,0.0,0.0,0.0,0.0,0.0,0.0,0.0,0.0,0.0,0.0,0.0,0.0,0.0,0.0,0.0,0.0,0.0,0.0,0.0,0.0,0.0,0.0,0.0,0.0,0.0,0.0,0.0,0.0,0.0,0.0,0.0,0.0,0.0,0.0,0.0,0.0,0.0,0.0,0.0,0.0,0.0,0.0,0.0,0.0,0.0,0.0,0.0,0.0,0.0,0.0,0.0,0.0,0.0,0.0,0.0,0.0,0.0,0.0,0.0,0.0,0.0,0.0,-0.8696,-0.9632,-1.0283,-1.0283,-1.0283,-1.0283,-1.0283,-0.9876,-0.949,0.0,0.0,0.0,0.0,0.0,0.0,0.0,0.0,0.0,0.0,0.0,0.0,0.0,0.0,0.0,0.0,0.0,0.0,0.0,0.0,0.0,0.0,0.0,0.0,0.0,0.0,0.0,0.0,0.0,0.0,0.0,0.0,0.0,0.0,0.0,0.0,0.0,0.0,0.0,0.0,0.0,0.0,0.0,0.0,0.0,0.0,0.0,0.0,0.0,0.0,0.0,0.0,0.0,0.0,0.0,0.0,0.0,0.0,0.0,0.0,0.0,0.0,0.0,0.0,0.0,0.0,0.0,0.0,0.0,0.0,0.0,0.0,0.0,0.0,0.0,0.0,0.0,0.0,0.0,0.0,0.0,0.0,0.0,0.0,0.0,0.0,0.0,0.0,0.0,0.0,0.0,0.0,0.0,0.0,0.0,0.0,0.0,0.0,0.0,0.0,0.0,0.0,0.0,-0.8988,-0.9849,-1.0432,-1.0432,-1.0527,-1.0588,-1.0588,-1.0371,-1.0148,-0.9958,0.0,0.0,0.0,0.0,0.0,0.0,0.0,0.0,0.0,0.0,0.0,0.0,0.0,0.0,0.0,0.0,0.0,0.0,0.0,0.0,0.0,0.0,0.0,0.0,0.0,0.0,0.0,0.0,0.0,0.0,0.0,0.0,0.0,0.0,0.0,0.0,0.0,0.0,0.0,0.0,0.0,0.0,0.0,0.0,0.0,0.0,0.0,0.0,0.0,0.0,0.0,0.0,0.0,0.0,0.0,0.0,0.0,0.0,0.0,0.0,0.0,0.0,0.0,0.0,0.0,0.0,0.0,0.0,0.0,0.0,0.0,0.0,0.0,0.0,0.0,0.0,0.0,0.0,0.0,0.0,0.0,0.0,0.0,0.0,0.0,0.0,0.0,0.0,0.0,0.0,0.0,0.0,0.0,0.0,0.0,0.0,0.0,0.0,0.0,0.0,0.0,0.0,-0.8997,-0.9921,-1.0524,-1.0505,-1.0826,-1.0894,-1.0873,-1.0578,-1.0384,-1.0493,0.0,0.0,0.0,0.0,0.0,0.0,0.0,0.0,0.0,0.0,0.0,0.0,0.0,0.0,0.0,0.0,0.0,0.0,0.0,0.0,0.0,0.0,0.0,0.0,0.0,0.0,0.0,0.0,0.0,0.0,0.0,0.0,0.0,0.0,0.0,0.0,0.0,0.0,0.0,0.0,0.0,0.0,0.0,0.0,0.0,0.0,0.0,0.0,0.0,0.0,0.0,0.0,0.0,0.0,0.0,0.0,0.0,0.0,0.0,0.0,0.0,0.0,0.0,0.0,0.0,0.0,0.0,0.0,0.0,0.0,0.0,0.0,0.0,0.0,0.0,0.0,0.0,0.0,0.0,0.0,0.0,0.0,0.0,0.0,0.0,0.0,0.0,0.0,0.0,0.0,0.0,0.0,0.0,0.0,0.0,0.0,0.0,0.0,0.0,0.0,0.0,0.0,-0.8974,-0.9494,-0.998,-1.024,-1.0461,-1.0638,-1.0747,-1.0147,-1.0028,-1.0136,0.0,0.0,0.0,0.0,0.0,0.0,0.0,0.0,0.0,0.0,0.0,0.0,0.0,0.0,0.0,0.0,0.0,0.0,0.0,0.0,0.0,0.0,0.0,0.0,0.0,0.0,0.0,0.0,0.0,0.0,0.0,0.0,0.0,0.0,0.0,0.0,0.0,0.0,0.0,0.0,0.0,0.0,0.0,0.0,0.0,0.0,0.0,0.0,0.0,0.0,0.0,0.0,0.0,0.0,0.0,0.0,0.0,0.0,0.0,0.0,-0.8092,-0.7495,0.0,0.0,0.0,0.0,0.0,0.0,0.0,0.0,0.0,0.0,0.0,0.0,0.0,0.0,0.0,0.0,0.0,0.0,0.0,0.0,0.0,0.0,0.0,0.0,0.0,0.0,0.0,0.0,0.0,0.0,0.0,0.0,0.0,0.0,0.0,0.0,0.0,0.0,0.0,0.0,-0.9549,-0.7817,-0.641,-0.6516,-0.6575,-0.6761,-0.6945,-0.6815,-0.6676,-0.6558,-0.6544,0.0,0.0,0.0,0.0,0.0,0.0,0.0,0.0,0.0,0.0,0.0,0.0,0.0,0.0,0.0,0.0,0.0,0.0,0.0,0.0,0.0,0.0,0.0,0.0,0.0,0.0,0.0,0.0,0.0,0.0,0.0,0.0,0.0,0.0,0.0,0.0,0.0,0.0,0.0,0.0,0.0,0.0,0.0,0.0,0.0,0.0,0.0,0.0,0.0,0.0,0.0,0.0,0.0,0.0,0.0,0.0,0.0,0.0,0.0,-0.8703,-0.8113,0.0,0.0,0.0,0.0,0.0,0.0,0.0,0.0,0.0,0.0,0.0,0.0,0.0,0.0,0.0,0.0,0.0,0.0,0.0,0.0,0.0,0.0,0.0,0.0,0.0,0.0,0.0,0.0,0.0,0.0,0.0,0.0,0.0,0.0,0.0,0.0,0.0,0.0,0.0,0.0,-0.7439,-0.4638,-0.2861,-0.2758,-0.2792,-0.2821,-0.2987,-0.3068,-0.3014,-0.2852,-0.2779,0.0,0.0,0.0,0.0,0.0,0.0,0.0,0.0,0.0,0.0,0.0,0.0,0.0,0.0,0.0,0.0,0.0,0.0,0.0,0.0,0.0,0.0,0.0,0.0,0.0,0.0,0.0,0.0,0.0,0.0,0.0,0.0,0.0,0.0,0.0,0.0,0.0,0.0,0.0,0.0,0.0,0.0,0.0,0.0,0.0,0.0,0.0,0.0,0.0,0.0,0.0,0.0,0.0,-0.9551,-0.97,-0.9727,-0.9849,-0.9971,-1.0046,-0.9306,-0.8866,-0.8662,-0.8411,0.0,0.0,0.0,0.0,0.0,0.0,0.0,0.0,0.0,0.0,0.0,0.0,0.0,0.0,0.0,0.0,0.0,0.0,0.0,0.0,0.0,0.0,0.0,0.0,-0.9863,-1.008,-0.9205,0.0,0.0,0.0,0.0,0.0,0.0,0.0,0.0,0.0,0.0,0.0,-0.5826,-0.2243,0.0,0.0,0.0,0.0,0.0,0.0,0.0,0.0,0.0,0.0,0.0,0.0,0.0,0.0,0.0,0.0,0.0,0.0,0.0,0.0,0.0,0.0,0.0,0.0,0.0,0.0,0.0,0.0,0.0,0.0,0.0,0.0,0.0,0.0,0.0,0.0,0.0,0.0,0.0,0.0,0.0,0.0,-0.6871,-0.7034,0.0,0.0,0.0,0.0,0.0,0.0,0.0,0.0,0.0,0.0,0.0,0.0,0.0,-0.8879,-0.9062,-0.9367,-0.9591,-0.9734,-0.991,-1.0059,-1.0195,-1.0209,-1.0229,-1.0243,-1.0127,0.0,-0.9456,-0.9422,0.0,0.0,0.0,0.0,0.0,0.0,0.0,0.0,0.0,0.0,0.0,0.0,0.0,0.0,0.0,0.0,0.0,0.0,0.0,0.0,0.0,0.0,-1.0215,-1.0297,-1.0392,-1.0426,0.0,-0.9869,-0.9469,-0.93,-0.9279,-0.9334,0.0,0.0,0.0,0.0,0.0,0.0,-0.9217,-0.3729,0.0,0.0,0.0,0.0,0.0,0.0,0.0,0.0,0.0,0.0,0.0,-0.0819,0.0,0.0,0.0,0.0,0.0,0.0,0.0,0.0,0.0,0.0,0.0,0.0,0.0,0.0,0.0,0.0,0.0,0.0,0.0,0.0,0.0,0.0,0.0,0.0,0.0,0.0,0.0,0.0,0.0,-0.6709,-0.7075,-0.7468,-0.7516,-0.7611,0.0,0.0,0.0,0.0,0.0,0.0,0.0,0.0,0.0,-0.9313,-0.9401,-0.9551,-0.9781,-0.9998,-1.0181,-1.0331,-1.048,-1.0629,-1.0778,-1.0778,-1.0778,-1.0778,-1.0778,-1.0663,-1.0453,-1.0032,-0.9693,-0.9429,0.0,0.0,0.0,0.0,-0.9218,-0.9239,-0.9381,-0.9435,-0.9449,-0.9537,0.0,0.0,0.0,0.0,0.0,0.0,0.0,-0.9822,0.0,0.0,-1.0711,-1.0941,-1.1124,-1.1246,-1.1246,-1.0989,-1.0609,-1.0107,-0.9955,-1.0096,-1.0446,-1.0471,0.0,0.0,0.0,-0.8277,-1.0143,-0.815,-0.4883,-0.0463,0.0,0.0,0.0,0.0,0.0,0.0,0.0,0.0,0.0,0.0,-0.1369,0.0,0.0,0.0,0.0,0.0,0.0,0.0,0.0,0.0,0.0,0.0,0.0,0.0,0.0,0.0,0.0,0.0,0.0,0.0,0.0,0.0,0.0,0.0,0.0,0.0,0.0,0.0,0.0,-0.7217,-0.7563,-0.8045,-0.8167,-0.8316,0.0,0.0,0.0,0.0,0.0,0.0,-0.915,-0.9057,-0.9298,-0.9808,-1.0019,-1.0168,-1.0399,-1.0575,-1.0724,-1.0833,-1.0948,-1.1063,-1.1172,-1.1172,-1.1179,-1.1185,-1.1185,-1.1185,-1.1131,-1.0487,-1.0154,-1.0046,-0.9964,-0.9937,-0.993,-0.9863,-0.9863,-0.9917,-0.9942,-1.0015,-1.0069,-1.0189,-1.0176,-1.0236,-1.0328,0.0,0.0,0.0,0.0,-1.0101,-1.0478,-1.0745,-1.1,-1.1208,-1.1599,-1.1789,-1.1796,-1.1576,-1.1342,-1.09,-1.0699,-1.0399,-0.9775,-1.0398,0.0,-1.1389,-0.8997,-0.746,-0.7846,-0.8384,-0.64,-0.0633,0.0,0.0,0.0,0.0,0.0,0.0,0.0,0.0,0.0,0.0,0.0,0.0,0.0,0.0,0.0,0.0,0.0,0.0,0.0,0.0,0.0,0.0,0.0,0.0,0.0,0.0,0.0,0.0,0.0,0.0,0.0,0.0,0.0,0.0,0.0,0.0,0.0,0.0,0.0,0.0,0.0,-0.8859,-0.913,0.0,0.0,0.0,0.0,-0.9551,-0.9551,-0.9618,-0.9768,-0.9559,-0.9711,-1.0022,-1.0431,-1.0717,-1.0731,-1.0995,-1.1131,-1.1138,-1.1151,-1.1172,-1.1067,-1.1067,-1.108,-1.124,-1.124,-1.124,-1.1212,-1.0839,-1.0683,-1.0649,-1.0365,-1.0256,-1.0276,-1.0399,-1.0541,-1.069,-1.0591,-1.0743,-1.0869,-1.075,-1.0717,-1.0744,-1.1002,-1.0692,0.0,0.0,-1.0315,-1.0451,-1.0862,-1.1028,-1.116,-1.1005,-1.1409,-1.1825,-1.1708,-1.1385,-1.1345,0.0,-1.1396,-0.9986,-0.6386,0.0,-1.1596,-1.1636,-1.1888,-0.9407,-0.1537,-0.0622,-0.0475,-0.0,0.0,0.0,0.0,0.0,0.0,0.0,0.0,0.0,0.0,0.0,0.0,0.0,-0.3235,0.0,0.0,0.0,0.0,0.0,0.0,0.0,0.0,0.0,0.0,0.0,0.0,0.0,0.0,0.0,0.0,0.0,0.0,0.0,0.0,0.0,0.0,0.0,0.0,0.0,0.0,0.0,0.0,-0.9089,-0.9228,0.0,-0.9883,-0.9801,-0.9848,-1.0039,-1.0066,-1.0055,-1.0148,-1.0058,-0.9127,-0.7184,-0.7256,-0.8544,-1.0933,-1.1127,-1.1268,-1.1219,-1.1168,-1.1266,-1.1364,-0.8821,-0.7637,-0.7792,-0.7792,-0.7792,-0.7778,-0.7634,-0.8744,-1.0633,-1.0528,-1.0624,-1.0496,-1.0541,-1.0652,-1.079,-1.0994,-0.9377,-0.7451,-0.7313,-0.7313,-0.7291,-0.7477,-0.749,-0.7394,-0.7222,-0.7098,-0.7429,-0.8529,-1.007,-1.1358,-1.1669,-0.9833,-0.8721,-1.1619,-1.2119,-1.2119,-1.2126,-1.1431,-0.9697,-0.6262,-0.4831,-0.5952,-1.144,-0.7774,-0.3443,-0.0315,0.0,0.0,0.0,0.0,0.0,0.0,0.0,0.0,0.0,0.0,0.0,0.0,0.0,0.0,0.0,-0.1188,-0.3358,0.0,0.0,0.0,0.0,0.0,0.0,0.0,0.0,0.0,0.0,0.0,0.0,0.0,0.0,0.0,0.0,0.0,0.0,0.0,0.0,0.0,0.0,0.0,0.0,0.0,-0.7309,-0.7122,-0.7391,-0.872,-0.9381,-0.8408,-0.9435,-0.967,-0.866,-0.9795,-0.9915,-0.8833,-0.9838,-0.94,-0.7327,-0.48,-0.4823,-0.7425,-0.8688,-0.9372,-0.9449,-0.9382,-1.0225,-1.1547,-0.893,-0.6344,-0.3773,-0.3773,-0.453,-0.5735,-0.5843,-0.7068,-0.9077,-0.8981,-0.8943,-0.8943,-0.8943,-0.8876,-0.9131,-1.0806,-0.7915,-0.3531,-0.3516,-0.3533,-0.3549,-0.3648,-0.368,-0.3871,-0.369,-0.3555,-0.3882,-0.4809,-0.8347,-1.1682,-1.1998,-0.7855,-0.4601,-0.7701,-1.0484,-1.2462,-1.2468,-0.9537,-0.6398,-0.4165,-0.171,-0.188,-0.7469,-0.3497,0.0,0.0,0.0,0.0,0.0,0.0,0.0,0.0,0.0,0.0,0.0,0.0,0.0,0.0,0.0,0.0,0.0,0.0,-0.1079,-0.3254,0.0,0.0,0.0,0.0,0.0,0.0,0.0,0.0,0.0,0.0,0.0,0.0,0.0,0.0,0.0,0.0,0.0,0.0,0.0,0.0,0.0,0.0,0.0,-0.8382,-0.6206,-0.4116,-0.3932,-0.7449,-0.8579,-0.5257,-0.8252,-0.8944,-0.5618,-0.8485,-0.897,-0.573,-0.8578,-1.0376,-1.0376,-0.3618,0.0,0.0,-0.3746,-0.5578,-0.5578,-0.5581,-0.757,-1.1283,-1.129,-0.7145,0.0,0.0,-0.2127,-0.5629,-0.5629,-0.5629,-0.561,-0.5296,-0.5232,-0.5235,-0.5235,-0.5281,-0.5803,-0.9855,-0.6229,0.0,0.0,0.0,0.0,0.0,0.0,0.0,0.0,0.0,0.0,0.0,-0.6033,-1.2103,-1.1752,-0.5644,0.0,0.0,-0.652,-1.2456,-1.2156,-0.5608,0.0,0.0,0.0,0.0,0.0,0.0,0.0,0.0,0.0,0.0,0.0,0.0,0.0,0.0,0.0,0.0,0.0,0.0,0.0,0.0,0.0,0.0,0.0,0.0,0.0,0.0,0.0,0.0,0.0,0.0,0.0,0.0,0.0,0.0,0.0,0.0,0.0,0.0,0.0,0.0,0.0,0.0,0.0,0.0,0.0,0.0,0.0,-0.6919,-0.7179,-0.8083,-0.8228,-0.6443,-0.1676,-0.2128,-0.3526,-0.5143,-0.3858,-0.3619,-0.5276,-0.3909,-0.4805,-0.895,-0.5195,-0.2917,-0.298,-0.1046,0.0,0.0,-0.1066,-0.1532,-0.1532,-0.1546,-0.2175,-0.3267,-0.3139,-0.2048,0.0,0.0,-0.0639,-0.1597,-0.1597,-0.1597,-0.159,-0.1523,-0.1496,-0.1498,-0.1512,-0.1537,-0.1726,-0.286,-0.1756,0.0,0.0,0.0,0.0,0.0,0.0,0.0,0.0,0.0,0.0,0.0,-0.1774,-0.4864,-1.0895,-0.6044,0.0,0.0,-0.6649,-1.0737,-0.4676,-0.1495,0.0,0.0,0.0,0.0,0.0,0.0,0.0,0.0,0.0,0.0,0.0,0.0,0.0,0.0,0.0,0.0,0.0,0.0,0.0,0.0,0.0,0.0,0.0,0.0,0.0,0.0,0.0,0.0,0.0,0.0,0.0,0.0,0.0,0.0,0.0,0.0,0.0,0.0,0.0,0.0,0.0,0.0,0.0,0.0,0.0,0.0,0.0,-0.7818,-0.718,-0.493,-0.5212,-0.4262,-0.0401,0.0,-0.0831,-0.2904,-0.1262,-0.085,-0.2984,-0.1145,-0.1885,-0.5924,-0.2223,0.0,0.0,0.0,0.0,0.0,0.0,0.0,0.0,0.0,0.0,0.0,0.0,0.0,0.0,0.0,0.0,0.0,0.0,0.0,0.0,0.0,0.0,0.0,0.0,0.0,0.0,0.0,0.0,0.0,0.0,0.0,0.0,0.0,0.0,0.0,0.0,0.0,0.0,0.0,0.0,-0.1155,-0.6111,-0.3483,0.0,0.0,-0.386,-0.5906,-0.101,0.0,0.0,0.0,0.0,0.0,0.0,0.0,0.0,0.0,0.0,0.0,0.0,0.0,0.0,0.0,0.0,0.0,0.0,0.0,0.0,0.0,0.0,0.0,0.0,0.0,0.0,0.0,0.0,0.0,0.0,-0.467,-0.6689,0.0,0.0,0.0,0.0,0.0,0.0,0.0,0.0,0.0,0.0,0.0,0.0,0.0,0.0,0.0,0.0,-0.7098,-0.5457,-0.0673,0.0,0.0,0.0,0.0,0.0,0.0,0.0,0.0,0.0,0.0,0.0,0.0,0.0,0.0,0.0,0.0,0.0,0.0,0.0,0.0,0.0,0.0,0.0,0.0,0.0,0.0,0.0,0.0,0.0,0.0,0.0,0.0,0.0,0.0,0.0,0.0,0.0,0.0,0.0,0.0,0.0,0.0,0.0,0.0,0.0,0.0,0.0,0.0,0.0,0.0,0.0,0.0,0.0,0.0,0.0,0.0,0.0,0.0,0.0,0.0,0.0,0.0,0.0,0.0,0.0,0.0,0.0,0.0,0.0,0.0,0.0,0.0,0.0,0.0,0.0,0.0,0.0,0.0,0.0,0.0,0.0,0.0,0.0,0.0,0.0,0.0,0.0,0.0,0.0,0.0,0.0,0.0,-0.3723,0.0,0.0,0.0,0.0,0.0,0.0,0.0,0.0,0.0,0.0,0.0,0.0,0.0,0.0,0.0,-0.1531,-0.1577,-0.1213,-0.0137,0.0,0.0,0.0,0.0,0.0,0.0,0.0,0.0,0.0,0.0,0.0,0.0,0.0,0.0,0.0,0.0,0.0,0.0,0.0,0.0,0.0,0.0,0.0,0.0,0.0,0.0,0.0,0.0,0.0,0.0,0.0,0.0,0.0,0.0,0.0,0.0,0.0,0.0,0.0,0.0,0.0,0.0,0.0,0.0,0.0,0.0,0.0,0.0,0.0,0.0,0.0,0.0,0.0,0.0,0.0,0.0,0.0,0.0,0.0,0.0,0.0,0.0,0.0,0.0,0.0,0.0,0.0,0.0,0.0,0.0,0.0,0.0,0.0,0.0,0.0,0.0,0.0,0.0,0.0,0.0,0.0,0.0,0.0,0.0,0.0,0.0,0.0,0.0,0.0,0.0,0.0,0.0,-0.0801,0.0,0.0,0.0,0.0,0.0,0.0,0.0,0.0,0.0,0.0,0.0,0.0,0.0,0.0,0.0,0.0,0.0,0.0,0.0,0.0,0.0,0.0,0.0,0.0,0.0,0.0,0.0,0.0,0.0,0.0,0.0,0.0,0.0,0.0,0.0,0.0,0.0,0.0,0.0,0.0,0.0,0.0,0.0,0.0,0.0,0.0,0.0,0.0,0.0,0.0,0.0,0.0,0.0,0.0,0.0,0.0,0.0,0.0,0.0,0.0,0.0,0.0,0.0,0.0,0.0,0.0,0.0,0.0,0.0,0.0,0.0,0.0,0.0,0.0,0.0,0.0,0.0,0.0,0.0,0.0,0.0,0.0,0.0,0.0,0.0,0.0,0.0,0.0,0.0,0.0,0.0,0.0,0.0,0.0,0.0,0.0,0.0,0.0,0.0,0.0,0.0,0.0,0.0,0.0,0.0,0.0,0.0,0.0,0.0,0.0,0.0,0.0,0.0,0.0,0.0,0.0,0.0,0.0,0.0,0.0,0.0,0.0,0.0,0.0,0.0,0.0,0.0,0.0,0.0,0.0,0.0,0.0,0.0,0.0,0.0,0.0,0.0,0.0,0.0,0.0,0.0,0.0,0.0,0.0,0.0,0.0,0.0,0.0,0.0,0.0,0.0,0.0,0.0,0.0,0.0,0.0,0.0,0.0,0.0,0.0,0.0,0.0,0.0,0.0,0.0,0.0,0.0,0.0,0.0,0.0,0.0,0.0,0.0,0.0,0.0,0.0,0.0,0.0,0.0,0.0,0.0,0.0,0.0,0.0,0.0,0.0,0.0,0.0,0.0,0.0,0.0,0.0,0.0,0.0,0.0,0.0,0.0,0.0,0.0,0.0,0.0,0.0,0.0,0.0,0.0,0.0,0.0,0.0,0.0,0.0,0.0,0.0,0.0,0.0,0.0,0.0,0.0,0.0,0.0,0.0,0.0,0.0,0.0,0.0,0.0,0.0,-0.0107,-0.0569,-0.0686,-0.0575,0.0,0.0,0.0,0.0,0.0,0.0,0.0,0.0,0.0,0.0,0.0,0.0,0.0,0.0,0.0,0.0,0.0,0.0,0.0,0.0,0.0,0.0,0.0,0.0,0.0,0.0,0.0,0.0,0.0,0.0,0.0,0.0,0.0,0.0,0.0,0.0,0.0,0.0,0.0,0.0,0.0,0.0,0.0,0.0,0.0,0.0,0.0,0.0,0.0,0.0,0.0,0.0,0.0,0.0,0.0,0.0,0.0,0.0,0.0,0.0,0.0,0.0,0.0,0.0,0.0,0.0,0.0,0.0,0.0,0.0,0.0,0.0,0.0,0.0,0.0,0.0,0.0,0.0,0.0,0.0,0.0,0.0,0.0,0.0,0.0,0.0,0.0,0.0,0.0,0.0,0.0,0.0,0.0,0.0,0.0,0.0,0.0,0.0,0.0,0.0,0.0,0.0,0.0,0.0,0.0,0.0,0.0,0.0,0.0,0.0,0.0,0.0,0.0,0.0,0.0,0.0,0.0,0.0,0.0,0.0,0.0,0.0,0.0,0.0,0.0,0.0,0.0,0.0,0.0,0.0,0.0,0.0,0.0,0.0,0.0,0.0,0.0,0.0,0.0,0.0,0.0,0.0,0.0,0.0,0.0,0.0,0.0,0.0,0.0,0.0,0.0,0.0,0.0,0.0,0.0,0.0,0.0,0.0,0.0,0.0,0.0,0.0,0.0,0.0,0.0,0.0,0.0,0.0,0.0,0.0,0.0,0.0,0.0,0.0,0.0,0.0,0.0,0.0,0.0,0.0,0.0,0.0,0.0,0.0,0.0,0.0,0.0,0.0,0.0,0.0,0.0,0.0,0.0,0.0,0.0,0.0,0.0,0.0,0.0,0.0,0.0,0.0,0.0,0.0,0.0,0.0,0.0,0.0,0.0,0.0,0.0,0.0,0.0,0.0,0.0,0.0,0.0,0.0,0.0,0.0,0.0,0.0,0.0,0.0,0.0,0.0,0.0,0.0,0.0,0.0,0.0,0.0,0.0,0.0,0.0,0.0,0.0,0.0,0.0,0.0,0.0,0.0,0.0,0.0,0.0,0.0,0.0,0.0,0.0,0.0,0.0,0.0,0.0,0.0,0.0,0.0,0.0,0.0,0.0,0.0,0.0,0.0,0.0,0.0,0.0,0.0,0.0,0.0,0.0,0.0,0.0,0.0,0.0,0.0,0.0,0.0,0.0,0.0,0.0,0.0,0.0,0.0,0.0,0.0,0.0,0.0,0.0,0.0,0.0,0.0,0.0,0.0,0.0,0.0,0.0,0.0,0.0,0.0,0.0,0.0,0.0,0.0,0.0,0.0,0.0,0.0,0.0,0.0,0.0,0.0,0.0,0.0,0.0,0.0,0.0,0.0,0.0,0.0,0.0,0.0,0.0,0.0,0.0,0.0,0.0,0.0,0.0,0.0,0.0,0.0,0.0,0.0,0.0,0.0,0.0,0.0,0.0,0.0,0.0,0.0,0.0,0.0,0.0,0.0,0.0,0.0,0.0,0.0,0.0,0.0,0.0,0.0,0.0,0.0,0.0,0.0,0.0,0.0,0.0,0.0,0.0,0.0,0.0,0.0,0.0,0.0,0.0,0.0,0.0,0.0,0.0,0.0,0.0,0.0,0.0,0.0,0.0,0.0,0.0,0.0,0.0,0.0,0.0,0.0,0.0,0.0,0.0,0.0,0.0,0.0,0.0,0.0,0.0,0.0,0.0,0.0,0.0,0.0,0.0,0.0,0.0,0.0,0.0,0.0,0.0,0.0,0.0,0.0,0.0,0.0,0.0,0.0,0.0,0.0,0.0,0.0,0.0,0.0,0.0,0.0,0.0,0.0,0.0,0.0,0.0,0.0,0.0,0.0,0.0,0.0,0.0,0.0,0.0,0.0,0.0,0.0,0.0,0.0,0.0,0.0,0.0,0.0,0.0,0.0,0.0,0.0,0.0,0.0,0.0,0.0,0.0,0.0,0.0,0.0,0.0,0.0,0.0,0.0,0.0,0.0,0.0,0.0,0.0,0.0,0.0,0.0,0.0,0.0,0.0,0.0,0.0,0.0,0.0,0.0,0.0,0.0,0.0,0.0,0.0,0.0,0.0,0.0,0.0,0.0,0.0,0.0,0.0,0.0,0.0,0.0,0.0,0.0,0.0,0.0,0.0,0.0,0.0,0.0,0.0,0.0,0.0,0.0,0.0,0.0,0.0,0.0,0.0,0.0,0.0,0.0,0.0,0.0,0.0,0.0,0.0,0.0,0.0,0.0,0.0,0.0,0.0,0.0,0.0,0.0,0.0,0.0,0.0,0.0,0.0,0.0,0.0,0.0,0.0,0.0,0.0,0.0,0.0,0.0,0.0,0.0,0.0,0.0,0.0,0.0,0.0,0.0,0.0,0.0,0.0,0.0,0.0,0.0,0.0,0.0,0.0,0.0,0.0,0.0,0.0,0.0,0.0,0.0,0.0,0.0,0.0,0.0,0.0,0.0,0.0,0.0,0.0,0.0,0.0,0.0,0.0,0.0,0.0,0.0,0.0,0.0,0.0,0.0,0.0,0.0,0.0,0.0,0.0,0.0,0.0,0.0,0.0,0.0,0.0,0.0,0.0,0.0,0.0,0.0,0.0,0.0,0.0,0.0,0.0,0.0,0.0,0.0,0.0,0.0,0.0,0.0,0.0,0.0,0.0,0.0,0.0,0.0,0.0,0.0,0.0,0.0,0.0,0.0,0.0,0.0,0.0,0.0,0.0,0.0,0.0,0.0,0.0,0.0,0.0,0.0,0.0,0.0,0.0,0.0,0.0,0.0,0.0,0.0,0.0,0.0,0.0,0.0,0.0,0.0,0.0,0.0,0.0,0.0,0.0,0.0,0.0,0.0,0.0,0.0,0.0,0.0,0.0,0.0,0.0,0.0,0.0,0.0,0.0,0.0,0.0,0.0,0.0,0.0,0.0,0.0,0.0,0.0,0.0,0.0,0.0,0.0,0.0,0.0,0.0,0.0,0.0,0.0,0.0,0.0,0.0,0.0,0.0,0.0,0.0,0.0,0.0,0.0,0.0,0.0,0.0,0.0,0.0,0.0,0.0,0.0,0.0,0.0,0.0,0.0,0.0,0.0,0.0,0.0,0.0,0.0,0.0,0.0,0.0,0.0,0.0,0.0,0.0,0.0,0.0,0.0,0.0,0.0,0.0,0.0,0.0,0.0,0.0,0.0,0.0,0.0,0.0,0.0,0.0,0.0,0.0,0.0,0.0,0.0,0.0,0.0,0.0,0.0,0.0,0.0,0.0,0.0,0.0,0.0,0.0,0.0,0.0,0.0,0.0,0.0,0.0,0.0,0.0,0.0,0.0,0.0,0.0,0.0,0.0,0.0,0.0,0.0,0.0,0.0,0.0,0.0,0.0,0.0,0.0,0.0,0.0,0.0,0.0,0.0,0.0,0.0,0.0,0.0,0.0,0.0,0.0,0.0,0.0,0.0,0.0,0.0,0.0,0.0,0.0,0.0,0.0,0.0,0.0,0.0,0.0,0.0,0.0,0.0,0.0,0.0,0.0,0.0,0.0,0.0,0.0,0.0,0.0,0.0,0.0,0.0,0.0,0.0,0.0,0.0,0.0,0.0,0.0,0.0,0.0,0.0,0.0,0.0,0.0,0.0,0.0,0.0,0.0,0.0,0.0,0.0,0.0,0.0,0.0,0.0,0.0,0.0,0.0,0.0,0.0,0.0,0.0,0.0,0.0,0.0,0.0,0.0,0.0,0.0,0.0,0.0,0.0,0.0,0.0,0.0,0.0,0.0,0.0,0.0,0.0,0.0,0.0,0.0,0.0,0.0,0.0,0.0,0.0,0.0,0.0,0.0,0.0,0.0,0.0,0.0,0.0,0.0,0.0,0.0,0.0,0.0,0.0,0.0,0.0,0.0,0.0,0.0,0.0,0.0,0.0,0.0,0.0,0.0,0.0,0.0,0.0,0.0,0.0,0.0,0.0,0.0,0.0,0.0,0.0,0.0,0.0,0.0,0.0,0.0,0.0,0.0,0.0,0.0,0.0,0.0,0.0,0.0,0.0,0.0,0.0,0.0,0.0,0.0,0.0,0.0,0.0,0.0,0.0,0.0,0.0,0.0,0.0,0.0,0.0,0.0,0.0,0.0,0.0,0.0,0.0,0.0,0.0,0.0,0.0,0.0,0.0,0.0,0.0,0.0,0.0,0.0,0.0,0.0,0.0,0.0,0.0,0.0,0.0,0.0,0.0,0.0,0.0,0.0,0.0,0.0,0.0,0.0,0.0,0.0,0.0,0.0,0.0,0.0,0.0,0.0,0.0,0.0,0.0,0.0,0.0,0.0,0.0,0.0,0.0,0.0,0.0,0.0,0.0,0.0,0.0,0.0,0.0,0.0,0.0,0.0,0.0,0.0,0.0,0.0,0.0,0.0,0.0,0.0,0.0,0.0,0.0,0.0,0.0,0.0,0.0,0.0,0.0,0.0,0.0,0.0,0.0,0.0,0.0,0.0,0.0,0.0,0.0,0.0,0.0,0.0,0.0,0.0,0.0,0.0,0.0,0.0,0.0,0.0,0.0,0.0,0.0,0.0,0.0,0.0,0.0,0.0,0.0,0.0,0.0,0.0,0.0,0.0,0.0,0.0,0.0,0.0,0.0,0.0,0.0,0.0,0.0,0.0,0.0,0.0,0.0,0.0,0.0,0.0,0.0,0.0,0.0,0.0,0.0,0.0,0.0,0.0,0.0,0.0,0.0,0.0,0.0,0.0,0.0,0.0,0.0,0.0,0.0,0.0,0.0,0.0,0.0,0.0,0.0,0.0,0.0,0.0,0.0,0.0,0.0,0.0,0.0,0.0,0.0,0.0,0.0,0.0,0.0,0.0,0.0,0.0,0.0,0.0,0.0,0.0,0.0,0.0,0.0,0.0,0.0,0.0,0.0,0.0,0.0,0.0,0.0,0.0,0.0,0.0,0.0,0.0,0.0,0.0,0.0,0.0,0.0,0.0,0.0,0.0,0.0,0.0,0.0,0.0,0.0,0.0,0.0,0.0,0.0,0.0,0.0,0.0,0.0,0.0,0.0,0.0,0.0,0.0,0.0,0.0,0.0,0.0,0.0,0.0,0.0,0.0,0.0,0.0,0.0,0.0,0.0,0.0,0.0,0.0,0.0,0.0,0.0,0.0,0.0,0.0,0.0,0.0,0.0,0.0,0.0,0.0,0.0,0.0,0.0,0.0,0.0,0.0,0.0,0.0,0.0,0.0,0.0,0.0,0.0,0.0,0.0,0.0,0.0,0.0,0.0,0.0,0.0,0.0,0.0,0.0,0.0,0.0,0.0,0.0,0.0,0.0,0.0,0.0,0.0,0.0,0.0,0.0,0.0,0.0,0.0,0.0,0.0,0.0,0.0,0.0,0.0,0.0,0.0,0.0,0.0,0.0,0.0,0.0,0.0,0.0,0.0,0.0,0.0,0.0,0.0,0.0,0.0,0.0,0.0,0.0,0.0,0.0,0.0,0.0,0.0,0.0,0.0,0.0,0.0,0.0,0.0,0.0,0.0,0.0,0.0,0.0,0.0,0.0,0.0,0.0,0.0,0.0,0.0,0.0,0.0,0.0,0.0,0.0,0.0,0.0,0.0,0.0,0.0,0.0,0.0,0.0,0.0,0.0,0.0,0.0,0.0,0.0,0.0,0.0,0.0,0.0,0.0,0.0,0.0,0.0,0.0,0.0,0.0,0.0,0.0,0.0,0.0,0.0,0.0,0.0,0.0,0.0,0.0,0.0,0.0,0.0,0.0,0.0,0.0,0.0,0.0,0.0,0.0,0.0,0.0,0.0,0.0,0.0,0.0,0.0,0.0,0.0,0.0,0.0,0.0,0.0,0.0,0.0,0.0,0.0,0.0,0.0,0.0,0.0,0.0,0.0,0.0,0.0,0.0,0.0,0.0,0.0,0.0,0.0,0.0,0.0,0.0,0.0,0.0,0.0,0.0,0.0,0.0,0.0,0.0,0.0,0.0,0.0,0.0,0.0,0.0,0.0,0.0,0.0,0.0,0.0,0.0,0.0,0.0,0.0,0.0,0.0,0.0,0.0,0.0,0.0,0.0,0.0,0.0,0.0,0.0,0.0,0.0,0.0,0.0,0.0,0.0,0.0,0.0,0.0,0.0,0.0,0.0,0.0,0.0,0.0,0.0,0.0,0.0,0.0,0.0,0.0,0.0,0.0,0.0,0.0,0.0,0.0,0.0,0.0,0.0,0.0,0.0,0.0,0.0,0.0,0.0,0.0,0.0,0.0,0.0,0.0,0.0,0.0,0.0,0.0,0.0,0.0,0.0,0.0,0.0,0.0,0.0,0.0,0.0,0.0,0.0,0.0,0.0,0.0,0.0,0.0,0.0,0.0,0.0,0.0,0.0,0.0,0.0,0.0,0.0,0.0,0.0,0.0,0.0,0.0,0.0,0.0,0.0,0.0,0.0,0.0,0.0,0.0,0.0,0.0,0.0,0.0,0.0,0.0,0.0,0.0,0.0,0.0,0.0,0.0,0.0,0.0,0.0,0.0,0.0,0.0,0.0,0.0,0.0,0.0,0.0,0.0,0.0,0.0,0.0,0.0,0.0,0.0,0.0,0.0,0.0,0.0,0.0,0.0,0.0,0.0,0.0,0.0,0.0,0.0,0.0,0.0,0.0,0.0,0.0,0.0,0.0,0.0,0.0,0.0,0.0,0.0,0.0,0.0,0.0,0.0,0.0,0.0,0.0,0.0,0.0,0.0,0.0,0.0,0.0,0.0,0.0,0.0,0.0,0.0,0.0,0.0,0.0,0.0,0.0,0.0,0.0,0.0,0.0,0.0,0.0,0.0,0.0,0.0,0.0,0.0,0.0,0.0,0.0,0.0,0.0,0.0,0.0,0.0,0.0,0.0,0.0,0.0,0.0,0.0,0.0,0.0,0.0,0.0,0.0,0.0,0.0,0.0,0.0,0.0,0.0,0.0,0.0,0.0,0.0,0.0,0.0,0.0,0.0,0.0,0.0,0.0,0.0,0.0,0.0,0.0,0.0,0.0,0.0,0.0,0.0,0.0,0.0,0.0,0.0,0.0,0.0,0.0,0.0,0.0,0.0,0.0,0.0,0.0,0.0,0.0,0.0,0.0,0.0,0.0,0.0,0.0,0.0,0.0,0.0,0.0,0.0,0.0,0.0,0.0,0.0,0.0,0.0,0.0,0.0,0.0,0.0,0.0,0.0,0.0,0.0,0.0,0.0,0.0,0.0,0.0,0.0,0.0,0.0,0.0,0.0,0.0,0.0,0.0,0.0,0.0,0.0,0.0,0.0,0.0,0.0,0.0,0.0,0.0,0.0,0.0,0.0,0.0,0.0,0.0,0.0,0.0,0.0,0.0,0.0,0.0,0.0,0.0,0.0,0.0,0.0,0.0,0.0,0.0,0.0,0.0,0.0,0.0,0.0,0.0,0.0,0.0,0.0,0.0,0.0,0.0,0.0,0.0,0.0,0.0,0.0,0.0,0.0,0.0,0.0,0.0,0.0,0.0,0.0,0.0,0.0,0.0,0.0,0.0,0.0,0.0,0.0,0.0,0.0,0.0,0.0,0.0,0.0,0.0,0.0,0.0,0.0,0.0,0.0,0.0,0.0,0.0,0.0,0.0,0.0,0.0,0.0,0.0,0.0,0.0,0.0,0.0,0.0,0.0,0.0,0.0,0.0,0.0,0.0,0.0,0.0,0.0,0.0,0.0,0.0,0.0,0.0,0.0,0.0,0.0,0.0,0.0,0.0,0.0,0.0,0.0,0.0,0.0,0.0,0.0,0.0,0.0,0.0,0.0,0.0,0.0,0.0,0.0,0.0,0.0,0.0,0.0,0.0,0.0,0.0,0.0,0.0,0.0,0.0,0.0,0.0,0.0,0.0,0.0,0.0,0.0,0.0,0.0,0.0,0.0,0.0,0.0,0.0,0.0,0.0,0.0,0.0,0.0,0.0,0.0,0.0,0.0,0.0,0.0,0.0,0.0,0.0,0.0,0.0,0.0,0.0,0.0,0.0,0.0,0.0,0.0,0.0,0.0,0.0,0.0,0.0,0.0,0.0,0.0,0.0,0.0,0.0,0.0,0.0,0.0,0.0,0.0,0.0,0.0,0.0,0.0,0.0,0.0,0.0,0.0,0.0,0.0,0.0,0.0,0.0,0.0,0.0,0.0,0.0,0.0,0.0,0.0,0.0,0.0,0.0,0.0,0.0,0.0,0.0,0.0,0.0,0.0,0.0,0.0,0.0,0.0,0.0,0.0,0.0,0.0,0.0,0.0,0.0,0.0,0.0,0.0,0.0,0.0,0.0,0.0,0.0,0.0,0.0,0.0,0.0,0.0,0.0,0.0,0.0,0.0,0.0,0.0,0.0,0.0,0.0,0.0,0.0,0.0,0.0,0.0,0.0,0.0,0.0,0.0,0.0,0.0,0.0,0.0,0.0,0.0,0.0,0.0,0.0,0.0,0.0,0.0,0.0,0.0,0.0,0.0,0.0,0.0,0.0,0.0,0.0,0.0,0.0,0.0,0.0,0.0,0.0,0.0,0.0,0.0,0.0,0.0,0.0,0.0,0.0,0.0,0.0,0.0,0.0,0.0,0.0,0.0,0.0,0.0,0.0,0.0,0.0,0.0,0.0,0.0,0.0,0.0,0.0,0.0,0.0,0.0,0.0,0.0,0.0,0.0,0.0,0.0,0.0,0.0,0.0,0.0,0.0,0.0,0.0,0.0,0.0,0.0,0.0,0.0,0.0,0.0,0.0,0.0,0.0,0.0,0.0,0.0,0.0,0.0,0.0,0.0,0.0,0.0,0.0,0.0,0.0,0.0,0.0,0.0,0.0,0.0,0.0,0.0,0.0,0.0,0.0,0.0,0.0,0.0,0.0,0.0,0.0,0.0,0.0,0.0,0.0,0.0,0.0,0.0,0.0,0.0,0.0,0.0,0.0,0.0,0.0,0.0,0.0,0.0,0.0,0.0,0.0,0.0,0.0,0.0,0.0,0.0,0.0,0.0,0.0,0.0,0.0,0.0,0.0,0.0,0.0,0.0,0.0,0.0,0.0,0.0,0.0,0.0,0.0,0.0,0.0,0.0,0.0,0.0,0.0,0.0,0.0,0.0,0.0,0.0,0.0,0.0,0.0,0.0,0.0,0.0,0.0,0.0,0.0,0.0,0.0,0.0,0.0,0.0,0.0,0.0,0.0,0.0,0.0,0.0,0.0,0.0,0.0,0.0,0.0,0.0,0.0,0.0,0.0,0.0,0.0,0.0,0.0,0.0,0.0,0.0,0.0,0.0,0.0,0.0,0.0,0.0,0.0,0.0,0.0,0.0,0.0,0.0,0.0,0.0,0.0,0.0,0.0,0.0,0.0,0.0,0.0,0.0,0.0,0.0,0.0,0.0,0.0,0.0,0.0,0.0,0.0,0.0,0.0,0.0,0.0,0.0,0.0,0.0,0.0,0.0,0.0,0.0,0.0,0.0,0.0,0.0,0.0,0.0,0.0,0.0,0.0,0.0,0.0,0.0,0.0,0.0,0.0,0.0,0.0,0.0,0.0,0.0,0.0,0.0,0.0,0.0,0.0,0.0,0.0,0.0,0.0,0.0,0.0,0.0,0.0,0.0,0.0,0.0,0.0,0.0,0.0,0.0,0.0,0.0,0.0,0.0,0.0,0.0,0.0,0.0,0.0,0.0,0.0,0.0,0.0,0.0,0.0,0.0,0.0,0.0,0.0,0.0,0.0,0.0,0.0,0.0,0.0,0.0,0.0,0.0,0.0,0.0,0.0,0.0,0.0,0.0,0.0,0.0,0.0,0.0,0.0,0.0,0.0,0.0,0.0,0.0,0.0,0.0,0.0,0.0,0.0,0.0,0.0,0.0,0.0,0.0,0.0,0.0,0.0,0.0,0.0,0.0,0.0,0.0,0.0,0.0,0.0,0.0,0.0,0.0,0.0,0.0,0.0,0.0,0.0,0.0,0.0,0.0,0.0,0.0,0.0,0.0,0.0,0.0,0.0,0.0,0.0,0.0,0.0,0.0,0.0,0.0,0.0,0.0,0.0,0.0,0.0,0.0,0.0,0.0,0.0,0.0,0.0,0.0,0.0,0.0,0.0,0.0,0.0,0.0,0.0,0.0,0.0,0.0,0.0,0.0,0.0,0.0,0.0,0.0,0.0,0.0,0.0,0.0,0.0,0.0,0.0,0.0,0.0,0.0,0.0,0.0,0.0,0.0,0.0,0.0,0.0,0.0,0.0,0.0,0.0,0.0,0.0,0.0,0.0,0.0,0.0,0.0,0.0,0.0,0.0,0.0,0.0,0.0,0.0,0.0,0.0,0.0,0.0,0.0,0.0,0.0,0.0,0.0,0.0,0.0,0.0,0.0,0.0,0.0,0.0,0.0,0.0,0.0,0.0,0.0,0.0,0.0,0.0,0.0,0.0,0.0,0.0,0.0,0.0,0.0,0.0,0.0,0.0,0.0,0.0,0.0,0.0,0.0,0.0,0.0,0.0,0.0,0.0,0.0,0.0,0.0,0.0,0.0,0.0,0.0,0.0,0.0,0.0,0.0,0.0,0.0,0.0,0.0,0.0,0.0,0.0,0.0,0.0,0.0,0.0,0.0,0.0,0.0,0.0,0.0,0.0,0.0,0.0,0.0,0.0,0.0,0.0,0.0,0.0,0.0,0.0,0.0,0.0,0.0,0.0,0.0,0.0,0.0,0.0,0.0,0.0,0.0,0.0,0.0,0.0,0.0,0.0,0.0,0.0,0.0,0.0,0.0,0.0,0.0,0.0,0.0,0.0,0.0,0.0,0.0,0.0,0.0,0.0,0.0,0.0,0.0,0.0,0.0,0.0,0.0,0.0,0.0,0.0,0.0,0.0,0.0,0.0,0.0,0.0,0.0,0.0,0.0,0.0,0.0,0.0,0.0,0.0,0.0,0.0,0.0,0.0,0.0,0.0,0.0,0.0,0.0,0.0,0.0,0.0,0.0,0.0,0.0,0.0,0.0,0.0,0.0,0.0,0.0,0.0,0.0,0.0,0.0,0.0,0.0,0.0,0.0,0.0,0.0,0.0,0.0,0.0,0.0,0.0,0.0,0.0,0.0,0.0,0.0,0.0,0.0,0.0,0.0,0.0,0.0,0.0,0.0,0.0,0.0,0.0,0.0,0.0,0.0,0.0,0.0,0.0,0.0,0.0,0.0,0.0,0.0,0.0,0.0,0.0,0.0,0.0,0.0,0.0,0.0,0.0,0.0,0.0,0.0,0.0,0.0,0.0,0.0,0.0,0.0,0.0,0.0,0.0,0.0,0.0,0.0,0.0,0.0,0.0,0.0,0.0,0.0,0.0,0.0,0.0,0.0,0.0,0.0,0.0,0.0,0.0,0.0,0.0,0.0,0.0,0.0,0.0,0.0,0.0,0.0,0.0,0.0,0.0,0.0,0.0,0.0,0.0,0.0,0.0,0.0,0.0,0.0,0.0,0.0,0.0,0.0,0.0,0.0,0.0,0.0,0.0,0.0,0.0,0.0,0.0,0.0,0.0,0.0,0.0,0.0,0.0,0.0,0.0,0.0,0.0,0.0,0.0,0.0,0.0,0.0,0.0,0.0,0.0,0.0,0.0,0.0,0.0,0.0,0.0,0.0,0.0,0.0,0.0,0.0,0.0,0.0,0.0,0.0,0.0,0.0,0.0,0.0,0.0,0.0,0.0,0.0,0.0,0.0,0.0,0.0,0.0,0.0,0.0,0.0,0.0,0.0,0.0,0.0,0.0,0.0,0.0,0.0,0.0,0.0,0.0,0.0,0.0,0.0,0.0,0.0,0.0,0.0,0.0,0.0,0.0,0.0,0.0,0.0,0.0,0.0,0.0,0.0,0.0,0.0,0.0,0.0,0.0,0.0,0.0,0.0,0.0,0.0,0.0,0.0,0.0,0.0,0.0,0.0,0.0,0.0,0.0,0.0,0.0,0.0,0.0,0.0,0.0,0.0,0.0,0.0,0.0,0.0,0.0,0.0,0.0,0.0,0.0,0.0,0.0,0.0,0.0,0.0,0.0,0.0,0.0,0.0,0.0,0.0,0.0,0.0,0.0,0.0,0.0,0.0,0.0,0.0,0.0,0.0,0.0,0.0,0.0,0.0,0.0,0.0,0.0,0.0,0.0,0.0,0.0,0.0,0.0,0.0,0.0,0.0,0.0,0.0,0.0,0.0,0.0,0.0,0.0,0.0,0.0,0.0,0.0,0.0,0.0,0.0,0.0,0.0,0.0,0.0,0.0,0.0,0.0,0.0,0.0,0.0,0.0,0.0,0.0,0.0,0.0,0.0,0.0,0.0,0.0,0.0,0.0,0.0,0.0,0.0,0.0,0.0,0.0,0.0,0.0,0.0,0.0,0.0,0.0,0.0,0.0,0.0,0.0,0.0,0.0,0.0,0.0,0.0,0.0,0.0,0.0,0.0,0.0,0.0,0.0,0.0,0.0,0.0,0.0,0.0,0.0,0.0,0.0,0.0,0.0,0.0,0.0,0.0,0.0,0.0,0.0,0.0,0.0,0.0,0.0,0.0,0.0,0.0,0.0,0.0,0.0,0.0,0.0,0.0,0.0,0.0,0.0,0.0,0.0,0.0,0.0,0.0,0.0,0.0,0.0,0.0,0.0,0.0,0.0,0.0,0.0,0.0,0.0,0.0,0.0,0.0,0.0,0.0,0.0,0.0,0.0,0.0,0.0,0.0,0.0,0.0,0.0,0.0,0.0,0.0,0.0,0.0,0.0,0.0,0.0,0.0,0.0,0.0,0.0,0.0,0.0,0.0,0.0,0.0,0.0,0.0,0.0,0.0,0.0,0.0,0.0,0.0,0.0,0.0,0.0,0.0,0.0,0.0,0.0,0.0,0.0,0.0,0.0,0.0,0.0,0.0,0.0,0.0,0.0,0.0,0.0,0.0,0.0,0.0,0.0,0.0,0.0,0.0,0.0,0.0,0.0,0.0,0.0,0.0,0.0,0.0,0.0,0.0,0.0,0.0,0.0,0.0,0.0,0.0,0.0,0.0,0.0,0.0,0.0,0.0,0.0,0.0,0.0,0.0,0.0,0.0,0.0,0.0,0.0,0.0,0.0,0.0,0.0,0.0,0.0,0.0,0.0,0.0,0.0,0.0,0.0,0.0,0.0,0.0,0.0,0.0,0.0,0.0,0.0,0.0,0.0,0.0,0.0,0.0,0.0,0.0,0.0,0.0,0.0,0.0,0.0,0.0,0.0,0.0,0.0,0.0,0.0,0.0,0.0,0.0,0.0,0.0,0.0,0.0,0.0,0.0,0.0,0.0,0.0,0.0,0.0,0.0,0.0,0.0,0.0,0.0,0.0,0.0,0.0,0.0,0.0,0.0,0.0,0.0,0.0,0.0,0.0,0.0,0.0,0.0,0.0,0.0,0.0,0.0,0.0,0.0,0.0,0.0,0.0,0.0,0.0,0.0,0.0,0.0,0.0,0.0,0.0,0.0,0.0,0.0,0.0,0.0,0.0,0.0,0.0,0.0,0.0,0.0,0.0,0.0,0.0,0.0,0.0,0.0,0.0,0.0,0.0,0.0,0.0,0.0,0.0,0.0,0.0,0.0,0.0,0.0,0.0,0.0,0.0,0.0,0.0,0.0,0.0,0.0,0.0,0.0,0.0,0.0,0.0,0.0,0.0,0.0,0.0,0.0,0.0,0.0,0.0,0.0,0.0,0.0,0.0,0.0,0.0,0.0,0.0,0.0,0.0,0.0,0.0,0.0,0.0,0.0,0.0,0.0,0.0,0.0,0.0,0.0,0.0,0.0,0.0,0.0,0.0,0.0,0.0,0.0,0.0,0.0,0.0,0.0,0.0,0.0,0.0,0.0,0.0,0.0,0.0,0.0,0.0,0.0,0.0,0.0,0.0,0.0,0.0,0.0,0.0,0.0,0.0,0.0,0.0,0.0,0.0,0.0,0.0,0.0,0.0,0.0,0.0,0.0,0.0,0.0,0.0,0.0,0.0,0.0,0.0,0.0,0.0,0.0,0.0,0.0,0.0,0.0,0.0,0.0,0.0,0.0,0.0,0.0,0.0,0.0,0.0,0.0,0.0,0.0,0.0,0.0,0.0,0.0,0.0,0.0,0.0,0.0,0.0,0.0,0.0,0.0,0.0,0.0,0.0,0.0,0.0,0.0,0.0,0.0,0.0,0.0,0.0,0.0,0.0,0.0,0.0,0.0,0.0,0.0,0.0,0.0,0.0,0.0,0.0,0.0,0.0,0.0,0.0,0.0,0.0,0.0,0.0,0.0,0.0,0.0,0.0,0.0,0.0,0.0,0.0,0.0,0.0,0.0,0.0,0.0,0.0,0.0,0.0,0.0,0.0,0.0,0.0,0.0,0.0,0.0,0.0,0.0,0.0,0.0,0.0,0.0,0.0,0.0,0.0,0.0,0.0,0.0,0.0,0.0,0.0,0.0,0.0,0.0,0.0,0.0,0.0,0.0,0.0,0.0,0.0,0.0,0.0,0.0,0.0,0.0,0.0,0.0,0.0,0.0,0.0,0.0,0.0,0.0,0.0,0.0,0.0,0.0,0.0,0.0,0.0,0.0,0.0,0.0,0.0,0.0,0.0,0.0,0.0,0.0,0.0,0.0,0.0,0.0,0.0,0.0,0.0,0.0,0.0,0.0,0.0,0.0,0.0,0.0,0.0,0.0,0.0,0.0,0.0,0.0,0.0,0.0,0.0,0.0,0.0,0.0,0.0,0.0,0.0,0.0,0.0,0.0,0.0,0.0,0.0,0.0,0.0,0.0,0.0,0.0,0.0,0.0,0.0,0.0,0.0,0.0,0.0,0.0,0.0,0.0,0.0,0.0,0.0,0.0,0.0,0.0,0.0,0.0,0.0,0.0,0.0,0.0,0.0,0.0,0.0,0.0,0.0,0.0,0.0,0.0,0.0,0.0,0.0,0.0,0.0,0.0,0.0,0.0,0.0,0.0,0.0,0.0,0.0,0.0,0.0,0.0,0.0,0.0,0.0,0.0,0.0,0.0,0.0,0.0,0.0,0.0,0.0,0.0,0.0,0.0,0.0,0.0,0.0,0.0,0.0,0.0,0.0,0.0,0.0,0.0,0.0,0.0,0.0,0.0,0.0,0.0,0.0,0.0,0.0,0.0,0.0,0.0,0.0,0.0,0.0,0.0,0.0,0.0,0.0,0.0,0.0,0.0,0.0,0.0,0.0,0.0,0.0,0.0,0.0,0.0,0.0,0.0,0.0,0.0,0.0,0.0,0.0,0.0,0.0,0.0,0.0,0.0,0.0,0.0,0.0,0.0,0.0,0.0,0.0,0.0,0.0,0.0,0.0,0.0,0.0,0.0,0.0,0.0,0.0,0.0,0.0,0.0,0.0,0.0,0.0,0.0,0.0,0.0,0.0,0.0,0.0,0.0,0.0,0.0,0.0,0.0,0.0,0.0,0.0,0.0,0.0,0.0,0.0,0.0,0.0,0.0,0.0,0.0,0.0,0.0,0.0,0.0,0.0,0.0,0.0,0.0,0.0,0.0,0.0,0.0,0.0,0.0,0.0,0.0,0.0,0.0,0.0,0.0,0.0,0.0,0.0,0.0,0.0,0.0,0.0,0.0,0.0,0.0,0.0,0.0,0.0,0.0,0.0,0.0,0.0,0.0,0.0,0.0,0.0,0.0,0.0,0.0,0.0,0.0,0.0,0.0,0.0,0.0,0.0,0.0,0.0,0.0,0.0,0.0,0.0,0.0,0.0,0.0,0.0,0.0,0.0,0.0,0.0,0.0,0.0,0.0,0.0,0.0,0.0,0.0,0.0,0.0,0.0,0.0,0.0,0.0,0.0,0.0,0.0,0.0,0.0,0.0,0.0,0.0,0.0,0.0,0.0,0.0,0.0,0.0,0.0,0.0,0.0,0.0,0.0,0.0,0.0,0.0,0.0,0.0,0.0,0.0,0.0,0.0,0.0,0.0,0.0,0.0,0.0,0.0,0.0,0.0,0.0,0.0,0.0,0.0,0.0,0.0,0.0,0.0,0.0,0.0,0.0,0.0,0.0,0.0,0.0,0.0,0.0,0.0,0.0,0.0,0.0,0.0,0.0,0.0,0.0,0.0,0.0,0.0,0.0,0.0,0.0,0.0,0.0,0.0,0.0,0.0,0.0,0.0,0.0,0.0,0.0,0.0,0.0,0.0,0.0,0.0,0.0,0.0,0.0,0.0,0.0,0.0,0.0,0.0,0.0,0.0,0.0,0.0,0.0,0.0,0.0,0.0,0.0,0.0,0.0,0.0,0.0,0.0,0.0,0.0,0.0,0.0,0.0,0.0,0.0,0.0,0.0,0.0,0.0,0.0,0.0,0.0,0.0,0.0,0.0,0.0,0.0,0.0,0.0,0.0,0.0,0.0,0.0,0.0,0.0,0.0,0.0,0.0,0.0,0.0,0.0,0.0,0.0,0.0,0.0,0.0,0.0,0.0,0.0,0.0,0.0,0.0,0.0,0.0,0.0,0.0,0.0,0.0,0.0,0.0,0.0,0.0,0.0,0.0,0.0,0.0,0.0,0.0,0.0,0.0,0.0,0.0,0.0,0.0,0.0,0.0,0.0,0.0,0.0,0.0,0.0,0.0,0.0,0.0,0.0,0.0,0.0,0.0,0.0,0.0,0.0,0.0,0.0,0.0,0.0,0.0,0.0,0.0,0.0,0.0,0.0,0.0,0.0,0.0,0.0,0.0,0.0,0.0,0.0,0.0,0.0,0.0,0.0,0.0,0.0,0.0,0.0,0.0,0.0,0.0,0.0,0.0,0.0,0.0,0.0,0.0,0.0,0.0,0.0,0.0,0.0,0.0,0.0,0.0,0.0,0.0,0.0,0.0,0.0,0.0,0.0,0.0,0.0,0.0,0.0,0.0,0.0,0.0,0.0,0.0,0.0,0.0,0.0,0.0,0.0,0.0,0.0,0.0,0.0,0.0,0.0,0.0,0.0,0.0,0.0,0.0,0.0,0.0,0.0,0.0,0.0,0.0,0.0,0.0,0.0,0.0,0.0,0.0,0.0,0.0,0.0,0.0,0.0,0.0,0.0,0.0,0.0,0.0,0.0,0.0,0.0,0.0,0.0,0.0,0.0,0.0,0.0,0.0,0.0,0.0,0.0,0.0,0.0,0.0,0.0,0.0,0.0,0.0,0.0,0.0,0.0,0.0,0.0,0.0,0.0,0.0,0.0,0.0,0.0,0.0,0.0,0.0,0.0,0.0,0.0,0.0,0.0,0.0,0.0,0.0,0.0,0.0,0.0,0.0,0.0,0.0,0.0,0.0,0.0,0.0,0.0,0.0,0.0,0.0,0.0,0.0,0.0,0.0,0.0,0.0,0.0,0.0,0.0,0.0,0.0,0.0,0.0,0.0,0.0,0.0,0.0,0.0,0.0,0.0,0.0,0.0,0.0,0.0,0.0,0.0,0.0,0.0,0.0,0.0,0.0,0.0,0.0,0.0,0.0,0.0,0.0,0.0,0.0,0.0,0.0,0.0,0.0,0.0,0.0,0.0,0.0,0.0,0.0,0.0,0.0,0.0,0.0,0.0,0.0,0.0,0.0,0.0,0.0,0.0,0.0,0.0,0.0,0.0,0.0,0.0,0.0,0.0,0.0,0.0,0.0,0.0,0.0,0.0,0.0,0.0,0.0,0.0,0.0,0.0,0.0,0.0,0.0,0.0,0.0,0.0,0.0,0.0,0.0,0.0,0.0,0.0,0.0,0.0,0.0,0.0,0.0,0.0,0.0,0.0,0.0,0.0,0.0,0.0,0.0,0.0,0.0,0.0,0.0,0.0,0.0,0.0,0.0,0.0,0.0,0.0,0.0,0.0,0.0,0.0,0.0,0.0,0.0,0.0,0.0,0.0,0.0,0.0,0.0,0.0,0.0,0.0,0.0,0.0,0.0,0.0,0.0,0.0,0.0,0.0,0.0,0.0,0.0,0.0,0.0,0.0,0.0,0.0,0.0,0.0,0.0,0.0,0.0,0.0,0.0,0.0,0.0,0.0,0.0,0.0,0.0,0.0,0.0,0.0,0.0,0.0,0.0,0.0,0.0,0.0,0.0,0.0,0.0,0.0,0.0,0.0,0.0,0.0,0.0,0.0,0.0,0.0,0.0,0.0,0.0,0.0,0.0,0.0,0.0,0.0,0.0,0.0,0.0,0.0,0.0,0.0,0.0,0.0,0.0,0.0,0.0,0.0,0.0,0.0,0.0,0.0,0.0,0.0,0.0,0.0,0.0,0.0,0.0,0.0,0.0,0.0,0.0,0.0,0.0,0.0,0.0,0.0,0.0,0.0,0.0,0.0,0.0,0.0,0.0,0.0,0.0,0.0,0.0,0.0,0.0,0.0,0.0,0.0,0.0,0.0,0.0,0.0,0.0,0.0,0.0,0.0,0.0,0.0,0.0,0.0,0.0,0.0,0.0,0.0,0.0,0.0,0.0,0.0,0.0,0.0,0.0,0.0,0.0,0.0,0.0,0.0,0.0,0.0,0.0,0.0,0.0,0.0,0.0,0.0,0.0,0.0,0.0,0.0,0.0,0.0,0.0,0.0,0.0,0.0,0.0,0.0,0.0,0.0,0.0,0.0,0.0,0.0,0.0,0.0,0.0,0.0,0.0,0.0,0.0,0.0,0.0,0.0,0.0,0.0,0.0,0.0,0.0,0.0,0.0,0.0,0.0,0.0,0.0,0.0,0.0,0.0,0.0,0.0,0.0,0.0,0.0,0.0,0.0,0.0,0.0,0.0,0.0,0.0,0.0,0.0,0.0,0.0,0.0,0.0,0.0,0.0,0.0,0.0,0.0,0.0,0.0,0.0,0.0,0.0,0.0,0.0,0.0,0.0,0.0,0.0,0.0,0.0,0.0,0.0,0.0,0.0,0.0,0.0,0.0,0.0,0.0,0.0,0.0,0.0,0.0,0.0,0.0,0.0,0.0,0.0,0.0,0.0,0.0,0.0,0.0,0.0,0.0,0.0,0.0,0.0,0.0,0.0,0.0,0.0,0.0,0.0,0.0,0.0,0.0,0.0,0.0,0.0,0.0,0.0,0.0,0.0,0.0,0.0,0.0,0.0,0.0,0.0,0.0,0.0,0.0,0.0,0.0,0.0,0.0,0.0,0.0,0.0,0.0,0.0,0.0,0.0,0.0,0.0,0.0,0.0,0.0,0.0,0.0,0.0,0.0,0.0,0.0,0.0,0.0,0.0,0.0,0.0,0.0,0.0,0.0,0.0,0.0,0.0,0.0,0.0,0.0,0.0,0.0,0.0,0.0,0.0,0.0,0.0,0.0,0.0,0.0,0.0,0.0,0.0,0.0,0.0,0.0,0.0,0.0,0.0,0.0,0.0,0.0,0.0,0.0,0.0,0.0,0.0,0.0,0.0,0.0,0.0,0.0,0.0,0.0,0.0,0.0,0.0,0.0,0.0,0.0,0.0,0.0,0.0,0.0,0.0,0.0,0.0,0.0,0.0,0.0,0.0,0.0,0.0,0.0,0.0,0.0,0.0,0.0,0.0,0.0,0.0,0.0,0.0,0.0,0.0,0.0,0.0,0.0,0.0,0.0,0.0,0.0,0.0,0.0,0.0,0.0,0.0,0.0,0.0,0.0,0.0,0.0,0.0,0.0,0.0,0.0,0.0,0.0,0.0,0.0,0.0,0.0,0.0,0.0,0.0,0.0,0.0,0.0,0.0,0.0,0.0,0.0,0.0,0.0,0.0,0.0,0.0,0.0,0.0,0.0,0.0,0.0,0.0,0.0,0.0,0.0,0.0,0.0,0.0,0.0,0.0,0.0,0.0,0.0,0.0,0.0,0.0,0.0,0.0,0.0,0.0,0.0,0.0,0.0,0.0,0.0,0.0,0.0,0.0,0.0,0.0,0.0,0.0,0.0,0.0,0.0,0.0,0.0,0.0,0.0,0.0,0.0,0.0,0.0,0.0,0.0,0.0,0.0,0.0,0.0,0.0,0.0,0.0,0.0,0.0,0.0,0.0,0.0,0.0,0.0,0.0,0.0,0.0,0.0,0.0,0.0,0.0,0.0,0.0,0.0,0.0,0.0,0.0,0.0,0.0,0.0,0.0,0.0,0.0,0.0,0.0,0.0,0.0,0.0,0.0,0.0,0.0,0.0,0.0,0.0,0.0,0.0,0.0,0.0,0.0,0.0,0.0,0.0,0.0,0.0,0.0,0.0,0.0,0.0,0.0,0.0,0.0,0.0,0.0,0.0,0.0,0.0,0.0,0.0,0.0,0.0,0.0,0.0,0.0,0.0,0.0,0.0,0.0,0.0,0.0,0.0,0.0,0.0,0.0,0.0,0.0,0.0,0.0,0.0,0.0,0.0,0.0,0.0,0.0,0.0,0.0,0.0,0.0,0.0,0.0,0.0,0.0,0.0,0.0,0.0,0.0,0.0,0.0,0.0,0.0,0.0,0.0,0.0,0.0,0.0,0.0,0.0,0.0,0.0,0.0,0.0,0.0,0.0,0.0,0.0,0.0,0.0,0.0,0.0,0.0,0.0,0.0,0.0,0.0,0.0,0.0,0.0,0.0,0.0,0.0,0.0,0.0,0.0,0.0,0.0,0.0,0.0,0.0,0.0,0.0,0.0,0.0,0.0,0.0,0.0,0.0,0.0,0.0,0.0,0.0,0.0,0.0,0.0,0.0,0.0,0.0,0.0,0.0,0.0,0.0,0.0,0.0,0.0,0.0,0.0,0.0,0.0,0.0,0.0,0.0,0.0,0.0,0.0,0.0,0.0,0.0,0.0,0.0,0.0,0.0,0.0,0.0,0.0,0.0,0.0,0.0,0.0,0.0,0.0,0.0,0.0,0.0,0.0,0.0,0.0,0.0,0.0,0.0,0.0,0.0,0.0,0.0,0.0,0.0,0.0,0.0,0.0,0.0,0.0,0.0,0.0,0.0,0.0,0.0,0.0,0.0,0.0,0.0,0.0,0.0,0.0,0.0,0.0,0.0,0.0,0.0,0.0,0.0,0.0,0.0,0.0,0.0,0.0,0.0,0.0,0.0,0.0,0.0,0.0,0.0,0.0,0.0,0.0,0.0,0.0,0.0,0.0,0.0,0.0,0.0,0.0,0.0,0.0,0.0,0.0,0.0,0.0,0.0,0.0,0.0,0.0,0.0,0.0,0.0,0.0,0.0,0.0,0.0,0.0,0.0,0.0,0.0,0.0,0.0,0.0,0.0,0.0,0.0,0.0,0.0,0.0,0.0,0.0,0.0,0.0,0.0,0.0,0.0,0.0,0.0,0.0,0.0,0.0,0.0,0.0,0.0,0.0,0.0,0.0,0.0,0.0,0.0,0.0,0.0,0.0,0.0,0.0,0.0,0.0,0.0,0.0,0.0,0.0,0.0,0.0,0.0,0.0,0.0,0.0,0.0,0.0,0.0,0.0,0.0,0.0,0.0,0.0,0.0,0.0,0.0,0.0,0.0,0.0,0.0,0.0,0.0,0.0,0.0,0.0,0.0,0.0,0.0,0.0,0.0,0.0,0.0,0.0,0.0,0.0,0.0,0.0,0.0,0.0,0.0,0.0,0.0,0.0,0.0,0.0,0.0,0.0,0.0,0.0,0.0,0.0,0.0,0.0,0.0,0.0,0.0,0.0,0.0,0.0,0.0,0.0,0.0,0.0,0.0,0.4707,0.5367,0.4261,0.0674,0.0,0.0,0.0,0.0,0.0,0.0,0.0,0.0,0.0,0.0,0.0,0.0,0.0,0.0,0.0,0.0,0.0,0.0,0.0,0.0,0.0,0.0,0.0,0.0,0.0,0.0,0.0,0.0,0.0,0.0,0.0,0.0,0.0,0.0,0.0,0.0,0.0,0.0,0.0,0.0,0.0,0.0,0.0,0.0,0.0,0.0,0.0,0.0,0.0,0.0,0.0,0.0,0.0,0.0,0.0,0.0,0.0,0.0,0.0,0.0,0.0,0.0,0.0,0.0,0.0,0.0,0.0,0.0,0.0,0.0,0.0,0.0,0.0,0.0,0.0,0.0,0.0,0.0,0.0,0.0,0.0,0.0,0.0,0.0,0.0,0.0,0.0,0.0,0.0,0.0,0.0,0.0,0.0,0.0,0.0,0.0,0.0,0.0,0.0,0.0,0.0,0.0,0.0,0.0,0.0,0.0,0.0,0.0,1.0044,1.2246,1.0414,0.3003,0.0671,0.0,0.0,0.0,0.0,0.0,0.0,0.0,0.0,0.0,0.0,0.0,0.0,0.0,0.0,0.0,0.0,0.0,0.0,0.0,0.0,0.0,0.0,0.0,0.0,0.0,0.0,0.0,0.0,0.0,0.0,0.0,0.0,0.0,0.0,0.0,0.0,0.0,0.0,0.0,0.0,0.0,0.0,0.0,0.0,0.0,0.0,0.0,0.0,0.0,0.0,0.0,0.0,0.0,0.0,0.0,0.0,0.0,0.0,0.0,0.0,0.0,0.0,0.0,0.0,0.0,0.0,0.0,0.0,0.0,0.0,0.0,0.0,0.0,0.0,0.0,0.0,0.0,0.0,0.0,0.0,0.0,0.0,0.0,0.0,0.0,0.0,0.0,0.0,0.0,0.0,0.0,0.0,0.0,0.0,0.0,0.0,0.0,0.0,0.0,0.0,0.0,0.0,0.0,0.0,0.0,0.0,0.0,0.223,0.8094,1.267,1.0437,0.4757,0.0,0.0,0.0,0.0,0.0,0.0,0.0,0.0,0.0,0.0,0.0,0.0,0.0,0.0,0.0,0.0,0.0,0.0,0.0,0.0,0.0,0.0,0.0,0.0,0.0,0.0,0.0,0.0,0.0,0.0,0.0,0.0,0.0,0.0,0.0,0.0,0.0,0.0,0.0,0.0,0.0,0.0,0.0,0.0,0.0,0.0,0.0,0.0,0.0,0.0,0.0,0.0,0.0,0.0,0.0,0.0,0.0,0.0,0.0,0.0,0.0,0.0,0.0,0.0,0.0,0.0,0.0,0.0,0.0,0.0,0.0,0.0,0.0,0.0,0.0,0.0,0.0,0.0,0.0,0.0,0.0,0.0,0.0,0.0,0.0,0.0,0.0,0.0,0.0,0.0,0.0,0.0,0.0,0.0,0.0,0.0,0.0,0.0,0.0,0.0,0.0,0.1031,0.1288,0.315,0.5318,0.2914,0.0,0.0,0.6488,0.7937,1.203,0.9417,0.4915,0.0816,0.0,0.0,0.0,0.0,0.0,0.0,0.0,0.0,0.0,0.0,0.0,0.0,0.0,0.0,0.0,0.0,0.0,0.0,0.0,0.0,0.0,0.0,0.0,0.0,0.0,0.0,0.0,0.0,0.0,0.0,0.0,0.0,0.0,0.0,0.0,0.0,0.0,0.0,0.0,0.0,0.0,0.0,0.0,0.0,0.0,0.0,0.0,0.0,0.0,0.0,0.0,0.0,0.0,0.0,0.0,0.0,0.0,0.0,0.0,0.0,0.0,0.0,0.0,0.0,0.0,0.0,0.0,0.0,0.0,0.0,0.0,0.0,0.0,0.0,0.0,0.0,0.0,0.0,0.0,0.0,0.0,0.0,0.0,0.0,0.0,0.0,0.0,0.0,0.0,0.0,0.0,0.0,0.0,0.0,0.0,0.0,0.0,0.0,0.0,0.3739,0.384,0.6419,1.0444,0.6898,0.3783,0.0,0.0,0.0,0.9413,1.0412,0.7963,0.1275,0.0,0.0,0.0,0.0,0.0,0.0,0.0,0.0,0.0,0.0,0.0,0.0,0.0,0.0,0.0,0.0,0.0,0.0,0.0,0.0,0.0,0.0,0.0,0.0,0.0,0.0,0.0,0.0,0.0,0.0,0.0,0.0,0.0,0.0,0.0,0.0,0.0,0.0,0.0,0.0,0.0,0.0,0.0,0.0,0.0,0.0,0.0,0.0,0.0,0.0,0.0,0.0,0.0,0.0,0.0,0.0,0.0,0.0,0.0,0.0,0.0,0.0,0.0,0.0,0.0,0.0,0.0,0.0,0.0,0.0,0.0,0.0,0.0,0.0,0.0,0.0,0.0,0.0,0.0,0.0,0.0,0.0,0.0,0.0,0.0,0.0,0.0,0.0,0.0,0.0,0.0,0.0,0.0,0.0,0.0,0.0,0.0,0.0,0.0,0.9296,0.7912,0.6647,1.0346,1.0803,0.9592,0.7127,0.0,0.4517,0.2051,0.0,0.1179,0.015,0.0,0.0,0.0,0.0,0.0,0.0,0.0,0.0,0.0,0.0,0.0,0.0,0.0,0.0,0.0,0.0,0.0,0.0,0.0,0.0,0.0,0.0,0.0,0.0,0.0,0.0,0.0,0.0,0.0,0.0,0.0,0.0,0.0,0.0,0.0,0.0,0.0,0.0,0.0,0.0,0.0,0.0,0.0,0.0,0.0,0.0,0.0,0.0,0.0,0.0,0.0,0.0,0.0,0.0,0.0,0.0,0.0,0.0,0.0,0.0,0.0,0.0,0.0,0.0,0.0,0.0,0.0,0.0,0.0,0.0,0.0,0.0,0.0,0.0,0.0,0.0,0.0,0.0,0.0,0.0,0.0,0.0,0.0,0.0,0.0,0.0,0.0,0.0,0.0,0.0,0.0,0.0,0.0,0.0,0.0,0.0,0.0,0.0,0.0,1.1431,1.0624,0.978,1.1409,1.1565,1.105,0.954,0.9232,0.876,0.6998,0.0,0.0,0.0,0.0,0.0,0.0,0.0,0.0,0.0,0.0,0.0,0.0,0.0,0.0,0.0,0.0,0.0,0.0,0.0,0.0,0.0,0.0,0.0,0.0,0.0,0.0,0.0,0.0,0.0,0.0,0.0,0.0,0.0,0.0,0.0,0.0,0.0,0.0,0.0,0.0,0.0,0.0,0.0,0.0,0.0,0.0,0.0,0.0,0.0,0.0,0.0,0.0,0.0,0.0,0.0,0.0,0.0,0.0,0.0,0.0,0.0,0.0,0.0,0.0,0.0,0.0,0.0,0.0,0.0,0.0,0.0,0.0,0.0,0.0,0.0,0.0,0.0,0.0,0.0,0.0,0.0,0.0,0.0,0.0,0.0,0.0,0.0,0.0,0.0,0.0,0.0,0.0,0.0,0.0,0.0,0.0,0.0,0.0,0.0,0.0,0.0,0.0,1.2379,1.2092,1.2038,1.2189,1.1932,1.1577,1.1777,1.1737,1.167,1.161,0.7064,0.0,0.0,0.0,0.0,0.0,0.0,0.0,0.0,0.0,0.0,0.0,0.0,0.0,0.0,0.0,0.0,0.0,0.0,0.0,0.0,0.0,0.0,0.0,0.0,0.0,0.0,0.0,0.0,0.0,0.0,0.0,0.0,0.0,0.0,0.0,0.0,0.0,0.0,0.0,0.0,0.0,0.0,0.0,0.0,0.0,0.0,0.0,0.0,0.0,0.0,0.0,0.0,0.0,0.0,0.0,0.0,0.0,0.0,0.0,0.0,0.0,0.0,0.0,0.0,0.0,0.0,0.0,0.0,0.0,0.0,0.0,0.0,0.0,0.0,0.0,0.0,0.0,0.0,0.0,0.0,0.0,0.0,0.0,0.0,0.0,0.0,0.0,0.0,0.0,0.0,0.0,0.0,0.0,0.0,0.0,0.0,0.0,0.0,0.0,0.0,0.0,1.2834,1.2542,1.2179,1.2318,1.2277,1.2237,1.2121,1.2237,1.202,1.1643,1.1451,0.8931,0.146,0.0,0.0,0.0,0.0,0.0,0.0,0.0,0.0,0.0,0.0,0.0,0.0,0.0,0.0,0.0,0.0,0.0,0.0,0.0,0.0,0.0,0.0,0.0,0.0,0.0,0.0,0.0,0.0,0.0,0.0,0.0,0.0,0.0,0.0,0.0,0.0,0.0,0.0,0.0,0.0,0.0,0.0,0.0,0.0,0.0,0.0,0.0,0.0,0.0,0.0,0.0,0.0,0.0,0.0,0.0,0.0,0.0,0.0,0.0,0.0,0.0,0.0,0.0,0.0,0.0,0.0,0.0,0.0,0.0,0.0,0.0,0.0,0.0,0.0,0.0,0.0,0.0,0.0,0.0,0.0,0.0,0.0,0.0,0.0,0.0,0.0,0.0,0.0,0.0,0.0,0.0,0.0,0.0,0.0,0.0,0.0,0.0,0.0,0.0,0.0,0.0,1.2959,1.252,1.2708,1.303,1.28,1.2265,1.1095,0.8361,0.5674,0.3102,0.0443,0.0,0.0,0.0,0.0,0.0,0.0,0.0,0.0,0.0,0.0,0.0,0.0,0.0,0.0,0.0,0.0,0.0,0.0,0.0,0.0,0.0,0.0,0.0,0.0,0.0,0.0,0.0,0.0,0.0,0.0,0.0,0.0,0.0,0.0,0.0,0.0,0.0,0.0,0.0,0.0,0.0,0.0,0.0,0.0,0.0,0.0,0.0,0.0,0.0,0.0,0.0,0.0,0.0,0.0,0.0,0.0,0.0,0.0,0.0,0.0,0.0,0.0,0.0,0.0,0.0,0.0,0.0,0.0,0.0,0.0,0.0,0.0,0.0,0.0,0.0,0.0,0.0,0.0,0.0,0.0,0.0,0.0,0.0,0.0,0.0,0.0,0.0,0.0,0.0,0.0,0.0,0.0,0.0,0.0,0.0,0.0,0.0,0.0,0.0,0.9176,0.8968,0.0,1.0141,1.0677,1.1345,1.282,1.2638,1.0611,0.4892,0.1694,0.0,0.0,0.0,0.0,0.0,0.0,0.0,0.0,0.0,0.0,0.0,0.0,0.0,0.0,0.0,0.0,0.0,0.0,0.0,0.0,0.0,0.0,0.0,0.0,0.0,0.0,0.0,0.0,0.0,0.0,0.0,0.0,0.0,0.0,0.0,0.0,0.0,0.0,0.0,0.0,0.0,0.0,0.0,0.0,0.0,0.0,0.0,0.0,0.0,0.0,0.0,0.0,0.0,0.0,0.0,0.0,0.0,0.0,0.0,0.0,0.0,0.0,0.0,0.0,0.0,0.0,0.0,0.0,0.0,0.0,0.0,0.0,0.0,0.0,0.0,0.0,0.0,0.0,0.0,0.0,0.0,0.0,0.0,0.0,0.0,0.0,0.0,0.0,0.0,0.0,0.0,0.0,0.0,0.0,0.0,0.0,0.0,0.0,0.0,0.0,0.0]}]]